GW6089 Weather Reports


time (UTC)temp
C
wind
direction
speed
KPH
gust
KPH
rain 1hr
cm
rain 24hr
cm
rain mn
cm
humidity
%
barometer
mb
20260507192005 10 196 3.2 9.7 0.00 0.00 0.00 56 1016.1
20260507191919 10 192 3.2 9.7 0.00 0.00 0.00 56 1016.1
20260507191904 10 191 3.2 9.7 0.00 0.00 0.00 56 1016.0
20260507191805 10 187 3.2 9.7 0.00 0.00 0.00 56 1016.0
20260507191605 10 189 3.2 9.7 0.00 0.00 0.00 56 1016.0
20260507191504 10 195 3.2 9.7 0.00 0.00 0.00 56 1015.8
20260507191420 10 199 3.2 9.7 0.00 0.00 0.00 56 1015.8
20260507191405 10 201 3.2 9.7 0.00 0.00 0.00 56 1015.9
20260507191319 10 208 3.2 9.7 0.00 0.00 0.00 56 1015.9
20260507191305 10 210 3.2 9.7 0.00 0.00 0.00 56 1015.9
20260507191220 10 215 3.2 9.7 0.00 0.00 0.00 56 1015.9
20260507190904 10 221 3.2 9.7 0.00 0.00 0.00 56 1015.7
20260507190804 10 224 3.2 9.7 0.00 0.00 0.00 56 1015.5
20260507190705 10 221 3.2 9.7 0.00 0.00 0.00 56 1015.9
20260507190605 10 218 3.2 9.7 0.00 0.00 0.00 56 1015.9
20260507190505 10 215 3.2 9.7 0.00 0.00 0.00 56 1015.7
20260507190405 10 211 3.2 9.7 0.00 0.00 0.00 56 1015.8
20260507190305 10 209 3.2 9.7 0.00 0.00 0.00 56 1015.8
20260507190205 10 210 3.2 9.7 0.00 0.00 0.00 56 1015.9
20260507190006 10 213 3.2 9.7 0.00 0.00 0.00 56 1015.7
20260507185905 10 215 3.2 9.7 0.00 0.00 0.00 55 1015.7
20260507185806 10 219 3.2 9.7 0.00 0.00 0.00 55 1016.1
20260507185705 10 226 3.2 9.7 0.00 0.00 0.00 56 1015.9
20260507185605 10 228 3.2 9.7 0.00 0.00 0.00 56 1015.9
20260507185505 10 227 3.2 9.7 0.00 0.00 0.00 56 1015.8
20260507185405 10 229 3.2 9.7 0.00 0.00 0.00 56 1015.8
20260507185306 10 224 3.2 9.7 0.00 0.00 0.00 56 1015.5
20260507185205 10 221 3.2 9.7 0.00 0.00 0.00 55 1015.7
20260507185105 10 220 3.2 9.7 0.00 0.00 0.00 55 1015.6
20260507185005 10 217 3.2 9.7 0.00 0.00 0.00 55 1015.6
20260507184906 10 215 1.6 6.4 0.00 0.00 0.00 55 1015.4
20260507184806 10 210 1.6 6.4 0.00 0.00 0.00 55 1015.6
20260507184706 10 205 1.6 6.4 0.00 0.00 0.00 55 1015.8
20260507184619 10 198 1.6 6.4 0.00 0.00 0.00 55 1015.8
20260507184605 10 197 1.6 6.4 0.00 0.00 0.00 55 1015.7
20260507184505 10 190 1.6 6.4 0.00 0.00 0.00 55 1015.7
20260507184418 10 184 1.6 6.4 0.00 0.00 0.00 55 1015.7
20260507184305 10 188 1.6 6.4 0.00 0.00 0.00 55 1015.6
20260507184105 10 182 1.6 6.4 0.00 0.00 0.00 55 1015.5
20260507184004 10 178 1.6 6.4 0.00 0.00 0.00 55 1015.9
20260507183906 10 177 1.6 6.4 0.00 0.00 0.00 55 1015.9
20260507183805 10 174 1.6 6.4 0.00 0.00 0.00 55 1015.6
20260507183706 10 167 1.6 4.8 0.00 0.00 0.00 55 1015.5
20260507183619 10 169 1.6 4.8 0.00 0.00 0.00 55 1015.5
20260507183606 10 170 1.6 4.8 0.00 0.00 0.00 55 1015.6
20260507183519 10 173 1.6 4.8 0.00 0.00 0.00 55 1015.6
20260507183505 10 172 1.6 4.8 0.00 0.00 0.00 55 1015.5
20260507183320 10 165 1.6 4.8 0.00 0.00 0.00 55 1015.6
20260507183205 10 158 1.6 4.8 0.00 0.00 0.00 55 1015.5
20260507183120 10 156 1.6 4.8 0.00 0.00 0.00 55 1015.5
20260507183006 10 152 1.6 4.8 0.00 0.00 0.00 55 1015.7
20260507182806 10 144 1.6 3.2 0.00 0.00 0.00 55 1015.5
20260507182706 10 146 1.6 3.2 0.00 0.00 0.00 55 1015.4
20260507182606 10 148 1.6 3.2 0.00 0.00 0.00 54 1015.7
20260507182506 10 152 1.6 3.2 0.00 0.00 0.00 54 1015.5
20260507182405 10 156 1.6 3.2 0.00 0.00 0.00 54 1015.6
20260507182307 11 156 1.6 3.2 0.00 0.00 0.00 54 1015.4
20260507182204 11 158 1.6 4.8 0.00 0.00 0.00 54 1015.6
20260507182105 11 164 1.6 4.8 0.00 0.00 0.00 54 1015.6
20260507182006 11 171 1.6 4.8 0.00 0.00 0.00 54 1015.5
20260507181906 11 173 1.6 4.8 0.00 0.00 0.00 54 1015.4
20260507181819 11 175 1.6 4.8 0.00 0.00 0.00 54 1015.4
20260507181806 11 177 1.6 4.8 0.00 0.00 0.00 54 1015.6
20260507181706 11 177 1.6 4.8 0.00 0.00 0.00 54 1015.6
20260507181506 11 183 1.6 4.8 0.00 0.00 0.00 54 1015.3
20260507181405 11 183 1.6 4.8 0.00 0.00 0.00 54 1015.3
20260507181306 11 180 1.6 4.8 0.00 0.00 0.00 54 1015.4
20260507181205 11 182 1.6 4.8 0.00 0.00 0.00 54 1015.4
20260507181105 11 177 1.6 4.8 0.00 0.00 0.00 54 1015.3
20260507181006 11 169 1.6 4.8 0.00 0.00 0.00 53 1015.6
20260507180905 11 168 1.6 4.8 0.00 0.00 0.00 53 1015.5
20260507180805 11 162 1.6 4.8 0.00 0.00 0.00 53 1015.2
20260507180705 11 160 1.6 4.8 0.00 0.00 0.00 54 1015.5
20260507180604 11 144 1.6 3.2 0.00 0.00 0.00 53 1015.5
20260507180505 11 136 1.6 3.2 0.00 0.00 0.00 53 1015.7
20260507180405 11 136 1.6 6.4 0.00 0.00 0.00 53 1015.6
20260507180318 11 137 1.6 6.4 0.00 0.00 0.00 53 1015.6
20260507180306 11 138 1.6 6.4 0.00 0.00 0.00 53 1015.4
20260507180206 11 143 1.6 6.4 0.00 0.00 0.00 53 1015.5
20260507180005 11 143 1.6 6.4 0.00 0.00 0.00 53 1015.3
20260507175904 11 146 1.6 6.4 0.00 0.00 0.00 53 1015.3
20260507175821 11 148 1.6 6.4 0.00 0.00 0.00 53 1015.3
20260507175804 11 149 1.6 6.4 0.00 0.00 0.00 53 1015.4
20260507175706 11 150 3.2 6.4 0.00 0.00 0.00 53 1015.2
20260507175506 11 163 3.2 6.4 0.00 0.00 0.00 53 1015.3
20260507175420 11 165 3.2 6.4 0.00 0.00 0.00 53 1015.3
20260507175405 11 167 3.2 6.4 0.00 0.00 0.00 53 1015.1
20260507175307 11 176 3.2 6.4 0.00 0.00 0.00 53 1015.2
20260507175105 11 187 3.2 9.7 0.00 0.00 0.00 53 1015.3
20260507175006 11 192 3.2 9.7 0.00 0.00 0.00 53 1015.3
20260507174906 11 198 3.2 9.7 0.00 0.00 0.00 53 1015.4
20260507174806 11 204 3.2 9.7 0.00 0.00 0.00 53 1015.1
20260507174705 11 208 1.6 9.7 0.00 0.00 0.00 53 1015.1
20260507174606 11 210 3.2 9.7 0.00 0.00 0.00 53 1015.3
20260507174521 11 215 3.2 9.7 0.00 0.00 0.00 53 1015.3
20260507174505 11 217 3.2 9.7 0.00 0.00 0.00 53 1015.3
20260507174405 11 220 3.2 11.3 0.00 0.00 0.00 53 1015.3
20260507174204 11 220 3.2 12.9 0.00 0.00 0.00 53 1015.2
20260507174106 11 222 3.2 12.9 0.00 0.00 0.00 53 1015.2
20260507174020 11 226 3.2 14.5 0.00 0.00 0.00 53 1015.2
20260507174004 11 227 3.2 14.5 0.00 0.00 0.00 54 1015.3
20260507173906 11 229 3.2 14.5 0.00 0.00 0.00 54 1015.3
20260507173704 11 232 4.8 14.5 0.00 0.00 0.00 54 1015.3
20260507173605 11 235 4.8 14.5 0.00 0.00 0.00 53 1015.1
20260507173504 11 233 4.8 14.5 0.00 0.00 0.00 53 1015.4
20260507173405 11 236 4.8 14.5 0.00 0.00 0.00 54 1015.1
20260507173306 11 235 4.8 14.5 0.00 0.00 0.00 54 1015.1
20260507173205 11 238 4.8 14.5 0.00 0.00 0.00 54 1015.1
20260507173106 11 237 4.8 14.5 0.00 0.00 0.00 54 1015.1
20260507173006 11 234 4.8 14.5 0.00 0.00 0.00 54 1015.0
20260507172905 11 229 4.8 14.5 0.00 0.00 0.00 54 1015.1
20260507172805 11 229 4.8 14.5 0.00 0.00 0.00 54 1015.1
20260507172706 11 225 4.8 12.9 0.00 0.00 0.00 55 1014.9
20260507172620 11 222 4.8 12.9 0.00 0.00 0.00 55 1014.9
20260507172605 11 222 4.8 12.9 0.00 0.00 0.00 55 1015.0
20260507172505 11 220 4.8 12.9 0.00 0.00 0.00 55 1015.1
20260507172307 11 220 4.8 12.9 0.00 0.00 0.00 55 1015.1
20260507172205 11 217 4.8 12.9 0.00 0.00 0.00 55 1015.2
20260507172106 11 216 4.8 12.9 0.00 0.00 0.00 55 1015.3
20260507172004 11 217 4.8 16.1 0.00 0.00 0.00 56 1015.2
20260507171905 11 218 4.8 16.1 0.00 0.00 0.00 55 1015.2
20260507171804 11 220 4.8 16.1 0.00 0.00 0.00 55 1015.3
20260507171706 11 222 4.8 16.1 0.00 0.00 0.00 55 1015.2
20260507171604 11 226 4.8 16.1 0.00 0.00 0.00 55 1015.1
20260507171504 11 230 4.8 16.1 0.00 0.00 0.00 56 1015.3
20260507171404 11 228 4.8 16.1 0.00 0.00 0.00 56 1015.1
20260507171304 11 226 4.8 16.1 0.00 0.00 0.00 56 1015.3
20260507171205 11 224 4.8 16.1 0.00 0.00 0.00 56 1015.2
20260507171106 11 226 4.8 16.1 0.00 0.00 0.00 56 1015.2
20260507171006 11 229 3.2 16.1 0.00 0.00 0.00 56 1015.2
20260507170905 11 229 3.2 11.3 0.00 0.00 0.00 56 1015.4
20260507170805 11 222 3.2 11.3 0.00 0.00 0.00 56 1015.2
20260507170704 11 218 3.2 11.3 0.00 0.00 0.00 56 1015.3
20260507170605 11 207 3.2 9.7 0.00 0.00 0.00 56 1015.5
20260507170506 11 198 3.2 9.7 0.00 0.00 0.00 57 1015.5
20260507170404 11 198 1.6 9.7 0.00 0.00 0.00 57 1015.2
20260507170306 11 199 1.6 9.7 0.00 0.00 0.00 57 1015.4
20260507170205 11 203 1.6 9.7 0.00 0.00 0.00 57 1015.3
20260507170105 11 197 1.6 9.7 0.00 0.00 0.00 57 1015.5
20260507170005 11 188 1.6 6.4 0.00 0.00 0.00 57 1015.4
20260507165904 11 189 1.6 6.4 0.00 0.00 0.00 57 1015.4
20260507165819 11 192 1.6 4.8 0.00 0.00 0.00 57 1015.4
20260507165805 11 191 1.6 4.8 0.00 0.00 0.00 57 1015.3
20260507165705 11 189 1.6 4.8 0.00 0.00 0.00 57 1015.3
20260507165505 11 187 1.6 3.2 0.00 0.00 0.00 57 1015.2
20260507165405 11 181 1.6 3.2 0.00 0.00 0.00 57 1015.3
20260507165320 11 177 1.6 3.2 0.00 0.00 0.00 57 1015.3
20260507165306 11 175 1.6 3.2 0.00 0.00 0.00 57 1015.4
20260507165206 11 170 1.6 3.2 0.00 0.00 0.00 57 1015.3
20260507165005 11 164 1.6 4.8 0.00 0.00 0.00 57 1015.1
20260507164904 11 159 1.6 6.4 0.00 0.00 0.00 57 1015.2
20260507164805 11 157 1.6 6.4 0.00 0.00 0.00 57 1015.3
20260507164704 11 156 1.6 6.4 0.00 0.00 0.00 57 1015.2
20260507164605 11 153 1.6 6.4 0.00 0.00 0.00 57 1015.4
20260507164505 11 148 1.6 6.4 0.00 0.00 0.00 57 1015.2
20260507164404 11 150 1.6 6.4 0.00 0.00 0.00 57 1015.7
20260507164304 11 146 1.6 6.4 0.00 0.00 0.00 57 1015.4
20260507164205 11 147 3.2 6.4 0.00 0.00 0.00 57 1015.4
20260507164105 11 148 3.2 6.4 0.00 0.00 0.00 57 1015.5
20260507164006 11 148 3.2 6.4 0.00 0.00 0.00 57 1015.3
20260507163905 11 150 1.6 4.8 0.00 0.00 0.00 57 1015.4
20260507163805 11 151 1.6 4.8 0.00 0.00 0.00 57 1015.3
20260507163704 11 150 3.2 4.8 0.00 0.00 0.00 57 1015.3
20260507163605 11 148 3.2 4.8 0.00 0.00 0.00 57 1015.2
20260507163505 11 151 3.2 4.8 0.00 0.00 0.00 57 1015.5
20260507163419 11 155 3.2 4.8 0.00 0.00 0.00 57 1015.5
20260507163404 11 154 3.2 4.8 0.00 0.00 0.00 57 1015.3
20260507163305 11 159 3.2 4.8 0.00 0.00 0.00 57 1015.2
20260507163220 11 159 3.2 4.8 0.00 0.00 0.00 57 1015.2
20260507163105 11 165 3.2 6.4 0.00 0.00 0.00 57 1015.5
20260507162905 11 161 1.6 6.4 0.00 0.00 0.00 57 1015.4
20260507162805 11 161 1.6 6.4 0.00 0.00 0.00 57 1015.3
20260507162719 11 162 1.6 6.4 0.00 0.00 0.00 57 1015.3
20260507162706 11 163 1.6 6.4 0.00 0.00 0.00 57 1015.3
20260507162604 12 176 1.6 6.4 0.00 0.00 0.00 57 1015.3
20260507162405 12 178 1.6 6.4 0.00 0.00 0.00 57 1015.2
20260507162307 12 184 3.2 6.4 0.00 0.00 0.00 57 1015.3
20260507162205 12 187 1.6 6.4 0.00 0.00 0.00 57 1015.2
20260507162121 12 187 1.6 6.4 0.00 0.00 0.00 57 1015.2
20260507162105 12 188 1.6 6.4 0.00 0.00 0.00 57 1015.4
20260507162005 12 193 1.6 6.4 0.00 0.00 0.00 57 1015.1
20260507161805 12 205 1.6 6.4 0.00 0.00 0.00 57 1015.0
20260507161706 12 204 1.6 6.4 0.00 0.00 0.00 57 1015.1
20260507161606 12 202 1.6 6.4 0.00 0.00 0.00 57 1015.3
20260507161506 12 208 1.6 6.4 0.00 0.00 0.00 57 1015.0
20260507161406 12 209 1.6 6.4 0.00 0.00 0.00 57 1015.2
20260507161320 12 205 1.6 4.8 0.00 0.00 0.00 58 1015.2
20260507161306 12 204 1.6 4.8 0.00 0.00 0.00 58 1015.0
20260507161220 12 198 1.6 6.4 0.00 0.00 0.00 58 1015.0
20260507161206 12 198 1.6 6.4 0.00 0.00 0.00 58 1015.2
20260507160920 12 184 1.6 6.4 0.00 0.00 0.00 58 1015.2
20260507160906 12 184 1.6 6.4 0.00 0.00 0.00 58 1015.1
20260507160806 12 179 1.6 6.4 0.00 0.00 0.00 58 1015.3
20260507160605 12 177 1.6 6.4 0.00 0.00 0.00 58 1015.3
20260507160504 12 171 1.6 6.4 0.00 0.00 0.00 58 1015.1
20260507160419 12 168 1.6 6.4 0.00 0.00 0.00 58 1015.1
20260507160405 12 168 1.6 6.4 0.00 0.00 0.00 58 1015.2
20260507160305 12 168 1.6 6.4 0.00 0.00 0.00 57 1015.1
20260507160105 12 172 1.6 4.8 0.00 0.00 0.00 58 1015.3
20260507160005 12 167 1.6 6.4 0.00 0.00 0.00 58 1015.0
20260507155905 12 168 1.6 6.4 0.00 0.00 0.00 58 1015.1
20260507155806 12 165 1.6 6.4 0.00 0.00 0.00 58 1015.3
20260507155706 12 167 1.6 6.4 0.00 0.00 0.00 59 1015.2
20260507155605 12 170 1.6 6.4 0.00 0.00 0.00 58 1015.0
20260507155505 12 177 1.6 9.7 0.00 0.00 0.00 58 1015.0
20260507155421 12 185 1.6 9.7 0.00 0.00 0.00 58 1015.0
20260507155405 12 188 3.2 9.7 0.00 0.00 0.00 58 1015.1
20260507155306 12 196 3.2 12.9 0.00 0.00 0.00 58 1015.1
20260507155104 12 198 3.2 12.9 0.00 0.00 0.00 59 1015.1
20260507155021 12 203 3.2 12.9 0.00 0.00 0.00 59 1015.1
20260507155006 12 206 3.2 12.9 0.00 0.00 0.00 59 1015.0
20260507154904 12 211 3.2 12.9 0.00 0.00 0.00 59 1015.1
20260507154720 12 213 3.2 12.9 0.00 0.00 0.00 59 1015.0
20260507154706 12 214 3.2 12.9 0.00 0.00 0.00 59 1014.9
20260507154606 12 212 3.2 12.9 0.00 0.00 0.00 59 1015.1
20260507154406 12 212 3.2 12.9 0.00 0.00 0.00 59 1015.1
20260507154306 12 212 3.2 12.9 0.00 0.00 0.00 60 1015.0
20260507154220 12 214 3.2 12.9 0.00 0.00 0.00 60 1015.0
20260507154205 12 214 3.2 12.9 0.00 0.00 0.00 60 1015.1
20260507154119 12 216 3.2 12.9 0.00 0.00 0.00 60 1015.1
20260507154106 12 217 3.2 12.9 0.00 0.00 0.00 60 1015.1
20260507153806 12 216 1.6 12.9 0.00 0.00 0.00 60 1015.2
20260507153707 12 223 1.6 12.9 0.00 0.00 0.00 60 1015.0
20260507153606 12 236 1.6 12.9 0.00 0.00 0.00 60 1015.1
20260507153505 12 242 1.6 12.9 0.00 0.00 0.00 60 1015.1
20260507153405 12 250 1.6 6.4 0.00 0.00 0.00 60 1015.1
20260507153305 12 240 1.6 6.4 0.00 0.00 0.00 60 1015.0
20260507153205 12 228 1.6 6.4 0.00 0.00 0.00 60 1015.0
20260507153106 12 218 1.6 6.4 0.00 0.00 0.00 60 1015.3
20260507153005 12 212 1.6 6.4 0.00 0.00 0.00 60 1015.2
20260507152905 12 202 1.6 6.4 0.00 0.00 0.00 60 1015.1
20260507152804 12 174 1.6 4.8 0.00 0.00 0.00 60 1015.2
20260507152706 12 165 1.6 4.8 0.00 0.00 0.00 60 1015.1
20260507152605 12 174 1.6 4.8 0.00 0.00 0.00 61 1014.9
20260507152520 12 178 1.6 4.8 0.00 0.00 0.00 60 1014.9
20260507152507 12 179 1.6 4.8 0.00 0.00 0.00 60 1015.1
20260507152404 12 177 1.6 4.8 0.00 0.00 0.00 60 1015.0
20260507152206 13 173 1.6 4.8 0.00 0.00 0.00 61 1015.2
20260507152105 13 188 1.6 4.8 0.00 0.00 0.00 61 1015.1
20260507152005 13 191 1.6 4.8 0.00 0.00 0.00 60 1015.0
20260507151906 13 193 1.6 4.8 0.00 0.00 0.00 60 1015.1
20260507151805 13 205 1.6 4.8 0.00 0.00 0.00 60 1015.2
20260507151705 13 218 1.6 3.2 0.00 0.00 0.00 60 1015.0
20260507151606 13 224 0.0 3.2 0.00 0.00 0.00 60 1015.0
20260507151505 13 229 0.0 3.2 0.00 0.00 0.00 60 1015.2
20260507151406 13 234 1.6 3.2 0.00 0.00 0.00 60 1015.1
20260507151305 13 235 1.6 3.2 0.00 0.00 0.00 60 1015.1
20260507151206 13 240 1.6 4.8 0.00 0.00 0.00 60 1015.1
20260507151104 13 245 1.6 9.7 0.00 0.00 0.00 61 1015.1
20260507151021 13 247 1.6 9.7 0.00 0.00 0.00 61 1015.1
20260507151006 13 248 1.6 9.7 0.00 0.00 0.00 61 1015.0
20260507150906 13 247 1.6 9.7 0.00 0.00 0.00 61 1015.1
20260507150721 13 241 1.6 9.7 0.00 0.00 0.00 61 1015.2
20260507150705 13 240 1.6 9.7 0.00 0.00 0.00 61 1015.0
20260507150606 13 238 1.6 9.7 0.00 0.00 0.00 61 1015.0
20260507150406 13 232 1.6 9.7 0.00 0.00 0.00 61 1015.0
20260507150304 13 230 3.2 9.7 0.00 0.00 0.00 61 1014.9
20260507150206 13 227 3.2 9.7 0.00 0.00 0.00 61 1015.1
20260507150105 13 221 3.2 9.7 0.00 0.00 0.00 60 1014.9
20260507150006 13 218 3.2 9.7 0.00 0.00 0.00 60 1015.4
20260507145906 13 217 3.2 9.7 0.00 0.00 0.00 60 1015.0
20260507145820 13 219 3.2 9.7 0.00 0.00 0.00 61 1015.0
20260507145805 13 219 3.2 9.7 0.00 0.00 0.00 61 1015.1
20260507145705 13 220 1.6 9.7 0.00 0.00 0.00 60 1015.2
20260507145506 13 215 3.2 9.7 0.00 0.00 0.00 60 1015.2
20260507145418 13 216 3.2 9.7 0.00 0.00 0.00 61 1015.2
20260507145405 13 217 3.2 9.7 0.00 0.00 0.00 61 1015.2
20260507145319 13 218 1.6 9.7 0.00 0.00 0.00 61 1015.2
20260507145307 13 218 1.6 9.7 0.00 0.00 0.00 61 1015.1
20260507145006 13 220 1.6 4.8 0.00 0.00 0.00 61 1015.1
20260507144906 13 213 1.6 4.8 0.00 0.00 0.00 61 1015.0
20260507144806 13 204 1.6 4.8 0.00 0.00 0.00 61 1015.2
20260507144706 13 192 1.6 6.4 0.00 0.00 0.00 61 1015.2
20260507144606 13 185 1.6 6.4 0.00 0.00 0.00 61 1015.2
20260507144506 13 177 1.6 6.4 0.00 0.00 0.00 61 1015.3
20260507144406 13 177 1.6 6.4 0.00 0.00 0.00 61 1015.0
20260507144305 13 167 1.6 6.4 0.00 0.00 0.00 61 1015.1
20260507144205 13 158 1.6 6.4 0.00 0.00 0.00 61 1015.0
20260507144106 13 147 1.6 6.4 0.00 0.00 0.00 61 1015.2
20260507144004 13 152 1.6 6.4 0.00 0.00 0.00 61 1015.1
20260507143906 13 150 1.6 6.4 0.00 0.00 0.00 60 1015.0
20260507143806 13 158 1.6 6.4 0.00 0.00 0.00 60 1015.2
20260507143705 13 163 1.6 6.4 0.00 0.00 0.00 61 1015.0
20260507143619 13 167 1.6 6.4 0.00 0.00 0.00 61 1015.0
20260507143606 13 168 1.6 6.4 0.00 0.00 0.00 61 1014.7
20260507143506 13 178 1.6 6.4 0.00 0.00 0.00 61 1015.2
20260507143305 13 193 1.6 6.4 0.00 0.00 0.00 61 1015.2
20260507143205 14 201 1.6 6.4 0.00 0.00 0.00 61 1015.1
20260507143106 14 209 1.6 6.4 0.00 0.00 0.00 61 1015.4
20260507143005 14 211 1.6 6.4 0.00 0.00 0.00 61 1015.2
20260507142905 14 221 1.6 6.4 0.00 0.00 0.00 61 1015.3
20260507142805 14 226 1.6 6.4 0.00 0.00 0.00 61 1015.1
20260507142705 14 228 1.6 6.4 0.00 0.00 0.00 61 1015.1
20260507142606 14 223 1.6 6.4 0.00 0.00 0.00 61 1015.2
20260507142505 14 221 1.6 6.4 0.00 0.00 0.00 61 1015.1
20260507142406 14 217 1.6 6.4 0.00 0.00 0.00 61 1014.9
20260507142307 14 207 1.6 4.8 0.00 0.00 0.00 61 1015.0
20260507142206 14 200 1.6 4.8 0.00 0.00 0.00 61 1015.0
20260507142106 14 199 1.6 4.8 0.00 0.00 0.00 61 1015.3
20260507142021 14 192 1.6 4.8 0.00 0.00 0.00 61 1015.3
20260507142005 14 188 1.6 4.8 0.00 0.00 0.00 61 1015.1
20260507141919 14 178 1.6 4.8 0.00 0.00 0.00 61 1015.1
20260507141904 14 177 1.6 4.8 0.00 0.00 0.00 61 1015.1
20260507141718 14 164 1.6 6.4 0.00 0.00 0.00 61 1015.2
20260507141606 14 162 1.6 6.4 0.00 0.00 0.00 61 1015.2
20260507141520 14 163 1.6 6.4 0.00 0.00 0.00 61 1015.2
20260507141418 14 165 1.6 6.4 0.00 0.00 0.00 61 1015.1
20260507141406 14 166 1.6 6.4 0.00 0.00 0.00 61 1015.2
20260507141106 14 180 1.6 6.4 0.00 0.00 0.00 60 1015.0
20260507141004 14 181 3.2 6.4 0.00 0.00 0.00 60 1015.2
20260507140906 14 190 3.2 9.7 0.00 0.00 0.00 60 1015.3
20260507140805 14 199 3.2 9.7 0.00 0.00 0.00 60 1015.4
20260507140705 14 202 3.2 9.7 0.00 0.00 0.00 61 1015.4
20260507140605 14 204 3.2 9.7 0.00 0.00 0.00 60 1015.2
20260507140504 14 206 1.6 9.7 0.00 0.00 0.00 60 1015.2
20260507140406 14 207 1.6 9.7 0.00 0.00 0.00 61 1015.3
20260507140304 14 217 1.6 14.5 0.00 0.00 0.00 61 1015.3
20260507140206 14 215 1.6 14.5 0.00 0.00 0.00 60 1015.0
20260507140106 14 217 1.6 14.5 0.00 0.00 0.00 61 1015.0
20260507140006 14 224 1.6 14.5 0.00 0.00 0.00 61 1015.2
20260507135904 14 220 1.6 14.5 0.00 0.00 0.00 61 1015.0
20260507135805 14 214 1.6 14.5 0.00 0.00 0.00 61 1015.0
20260507135705 14 221 1.6 14.5 0.00 0.00 0.00 61 1015.1
20260507135604 14 220 1.6 14.5 0.00 0.00 0.00 61 1014.9
20260507135505 14 218 1.6 14.5 0.00 0.00 0.00 61 1015.0
20260507135404 14 214 1.6 14.5 0.00 0.00 0.00 61 1014.9
20260507135306 14 201 1.6 14.5 0.00 0.00 0.00 61 1015.1
20260507135206 15 205 1.6 9.7 0.00 0.00 0.00 61 1014.9
20260507135106 14 204 1.6 9.7 0.00 0.00 0.00 61 1014.9
20260507135021 15 198 1.6 9.7 0.00 0.00 0.00 61 1014.9
20260507135006 15 199 1.6 9.7 0.00 0.00 0.00 61 1015.1
20260507134904 15 203 1.6 9.7 0.00 0.00 0.00 61 1015.3
20260507134706 15 199 1.6 9.7 0.00 0.00 0.00 61 1015.0
20260507134606 15 202 3.2 9.7 0.00 0.00 0.00 61 1015.3
20260507134506 15 198 3.2 9.7 0.00 0.00 0.00 61 1015.4
20260507134406 15 199 3.2 9.7 0.00 0.00 0.00 61 1015.2
20260507134306 15 205 3.2 9.7 0.00 0.00 0.00 61 1015.2
20260507134206 15 196 1.6 6.4 0.00 0.00 0.00 61 1015.0
20260507134106 15 194 1.6 6.4 0.00 0.00 0.00 61 1015.2
20260507134006 15 193 1.6 6.4 0.00 0.00 0.00 61 1015.1
20260507133904 15 184 1.6 6.4 0.00 0.00 0.00 61 1015.3
20260507133804 15 178 1.6 6.4 0.00 0.00 0.00 61 1015.1
20260507133705 15 183 1.6 6.4 0.00 0.00 0.00 61 1015.2
20260507133604 15 187 1.6 9.7 0.00 0.00 0.00 61 1015.0
20260507133505 15 198 1.6 9.7 0.00 0.00 0.00 61 1015.3
20260507133404 15 204 3.2 9.7 0.00 0.00 0.00 61 1015.0
20260507133305 15 208 3.2 9.7 0.00 0.00 0.00 61 1015.0
20260507133206 15 217 3.2 9.7 0.00 0.00 0.00 61 1014.9
20260507133105 15 217 3.2 9.7 0.00 0.00 0.00 61 1014.9
20260507133005 15 217 3.2 9.7 0.00 0.00 0.00 61 1015.0
20260507132906 15 223 3.2 9.7 0.00 0.00 0.00 61 1015.0
20260507132805 15 235 3.2 9.7 0.00 0.00 0.00 61 1014.9
20260507132720 15 240 3.2 9.7 0.00 0.00 0.00 61 1014.9
20260507132706 15 238 3.2 9.7 0.00 0.00 0.00 61 1014.8
20260507132606 15 242 3.2 9.7 0.00 0.00 0.00 61 1014.7
20260507132406 15 247 1.6 9.7 0.00 0.00 0.00 61 1014.8
20260507132307 15 254 1.6 9.7 0.00 0.00 0.00 61 1014.9
20260507132219 15 246 1.6 6.4 0.00 0.00 0.00 61 1014.9
20260507132206 15 242 1.6 6.4 0.00 0.00 0.00 61 1014.9
20260507132106 15 236 1.6 6.4 0.00 0.00 0.00 61 1014.8
20260507131921 15 222 1.6 6.4 0.00 0.00 0.00 61 1015.1
20260507131906 15 219 1.6 6.4 0.00 0.00 0.00 61 1015.0
20260507131805 15 215 1.6 6.4 0.00 0.00 0.00 61 1015.0
20260507131604 15 211 1.6 6.4 0.00 0.00 0.00 61 1014.9
20260507131506 15 211 1.6 6.4 0.00 0.00 0.00 61 1014.8
20260507131405 15 210 1.6 6.4 0.00 0.00 0.00 61 1015.0
20260507131304 15 204 1.6 4.8 0.00 0.00 0.00 61 1015.0
20260507131204 15 216 1.6 4.8 0.00 0.00 0.00 61 1015.2
20260507131105 15 214 1.6 9.7 0.00 0.00 0.00 61 1014.9
20260507131004 15 215 1.6 9.7 0.00 0.00 0.00 61 1014.8
20260507130906 15 221 1.6 9.7 0.00 0.00 0.00 61 1014.7
20260507130806 15 214 1.6 9.7 0.00 0.00 0.00 61 1015.0
20260507130704 15 209 1.6 9.7 0.00 0.00 0.00 61 1014.5
20260507130606 15 207 1.6 9.7 0.00 0.00 0.00 61 1014.8
20260507130505 15 198 1.6 9.7 0.00 0.00 0.00 61 1014.7
20260507130405 15 191 1.6 9.7 0.00 0.00 0.00 61 1014.6
20260507130305 15 191 3.2 9.7 0.00 0.00 0.00 60 1014.7
20260507130219 15 185 1.6 9.7 0.00 0.00 0.00 60 1014.7
20260507130206 15 184 1.6 9.7 0.00 0.00 0.00 60 1014.7
20260507130120 15 187 1.6 9.7 0.00 0.00 0.00 60 1014.7
20260507130106 15 189 1.6 9.7 0.00 0.00 0.00 60 1014.8
20260507130020 15 190 1.6 4.8 0.00 0.00 0.00 60 1014.8
20260507125705 15 200 1.6 4.8 0.00 0.00 0.00 60 1014.7
20260507125605 15 201 1.6 4.8 0.00 0.00 0.00 60 1014.9
20260507125505 15 207 1.6 4.8 0.00 0.00 0.00 60 1014.9
20260507125406 15 213 1.6 4.8 0.00 0.00 0.00 60 1014.8
20260507125320 15 218 1.6 4.8 0.00 0.00 0.00 60 1014.8
20260507125307 15 218 1.6 4.8 0.00 0.00 0.00 60 1014.9
20260507125221 15 217 1.6 4.8 0.00 0.00 0.00 60 1014.9
20260507125205 15 216 1.6 4.8 0.00 0.00 0.00 60 1014.8
20260507124905 15 201 1.6 9.7 0.00 0.00 0.00 59 1014.4
20260507124805 15 203 1.6 9.7 0.00 0.00 0.00 59 1014.8
20260507124704 15 205 1.6 9.7 0.00 0.00 0.00 59 1014.7
20260507124606 15 207 1.6 9.7 0.00 0.00 0.00 59 1014.9
20260507124505 15 211 1.6 9.7 0.00 0.00 0.00 59 1014.9
20260507124405 15 211 1.6 9.7 0.00 0.00 0.00 59 1014.7
20260507124304 15 206 1.6 9.7 0.00 0.00 0.00 59 1014.8
20260507124206 15 212 1.6 9.7 0.00 0.00 0.00 59 1014.8
20260507124120 15 220 1.6 6.4 0.00 0.00 0.00 59 1014.8
20260507124106 15 226 1.6 6.4 0.00 0.00 0.00 59 1014.8
20260507124006 15 238 1.6 6.4 0.00 0.00 0.00 59 1014.7
20260507123806 15 245 1.6 3.2 0.00 0.00 0.00 59 1014.6
20260507123705 15 252 1.6 3.2 0.00 0.00 0.00 59 1014.5
20260507123606 15 262 1.6 3.2 0.00 0.00 0.00 59 1014.3
20260507123508 15 269 1.6 3.2 0.00 0.00 0.00 58 1014.5
20260507123405 15 278 1.6 3.2 0.00 0.00 0.00 58 1014.5
20260507123320 15 283 1.6 3.2 0.00 0.00 0.00 58 1014.5
20260507123305 15 285 1.6 3.2 0.00 0.00 0.00 58 1014.8
20260507123219 15 289 1.6 3.2 0.00 0.00 0.00 58 1014.8
20260507123205 15 290 1.6 3.2 0.00 0.00 0.00 58 1014.7
20260507123119 15 293 1.6 3.2 0.00 0.00 0.00 58 1014.7
20260507122805 15 313 1.6 3.2 0.00 0.00 0.00 58 1014.6
20260507122705 15 316 1.6 3.2 0.00 0.00 0.00 58 1014.5
20260507122604 15 312 1.6 3.2 0.00 0.00 0.00 58 1014.4
20260507122505 15 305 1.6 3.2 0.00 0.00 0.00 57 1014.3
20260507122404 15 302 1.6 3.2 0.00 0.00 0.00 57 1014.4
20260507122307 15 293 1.6 4.8 0.00 0.00 0.00 57 1014.3
20260507122206 15 300 1.6 4.8 0.00 0.00 0.00 57 1014.5
20260507122122 15 306 1.6 4.8 0.00 0.00 0.00 57 1014.5
20260507122104 15 308 1.6 4.8 0.00 0.00 0.00 57 1014.4
20260507122006 15 315 1.6 4.8 0.00 0.00 0.00 57 1014.2
20260507121804 15 332 1.6 4.8 0.00 0.00 0.00 57 1014.3
20260507121720 16 335 1.6 4.8 0.00 0.00 0.00 57 1014.3
20260507121704 16 337 1.6 4.8 0.00 0.00 0.00 57 1014.4
20260507121605 16 360 1.6 4.8 0.00 0.00 0.00 57 1014.2
20260507121406 16 22 1.6 4.8 0.00 0.00 0.00 57 1014.5
20260507121306 16 29 1.6 3.2 0.00 0.00 0.00 56 1014.2
20260507121221 16 30 1.6 3.2 0.00 0.00 0.00 56 1014.2
20260507121206 16 30 1.6 3.2 0.00 0.00 0.00 56 1014.4
20260507121106 16 30 1.6 3.2 0.00 0.00 0.00 56 1014.3
20260507121020 16 30 1.6 3.2 0.00 0.00 0.00 56 1014.3
20260507120906 16 30 1.6 3.2 0.00 0.00 0.00 56 1014.5
20260507120720 16 30 1.6 3.2 0.00 0.00 0.00 56 1014.5
20260507120706 16 30 1.6 3.2 0.00 0.00 0.00 56 1014.3
20260507120620 16 30 1.6 3.2 0.00 0.00 0.00 56 1014.3
20260507120605 16 30 1.6 3.2 0.00 0.00 0.00 56 1014.2
20260507120305 16 30 1.6 3.2 0.00 0.00 0.00 56 1014.2
20260507120205 16 30 1.6 3.2 0.00 0.00 0.00 56 1014.1
20260507120119 16 30 0.0 3.2 0.00 0.00 0.00 56 1014.1
20260507120106 16 30 0.0 1.6 0.00 0.00 0.00 56 1014.2
20260507120006 16 30 0.0 1.6 0.00 0.00 0.00 56 1014.2
20260507115805 16 30 0.0 3.2 0.00 0.00 0.00 56 1014.2
20260507115720 16 30 0.0 3.2 0.00 0.00 0.00 55 1014.2
20260507115705 16 30 0.0 3.2 0.00 0.00 0.00 55 1014.1
20260507115618 16 30 0.0 3.2 0.00 0.00 0.00 55 1014.1
20260507115605 16 30 0.0 3.2 0.00 0.00 0.00 55 1014.3
20260507115307 16 23 1.6 4.8 0.00 0.00 0.00 55 1014.1
20260507115221 16 22 1.6 4.8 0.00 0.00 0.00 55 1014.1
20260507115204 16 21 1.6 4.8 0.00 0.00 0.00 55 1014.2
20260507115104 16 14 1.6 6.4 0.00 0.00 0.00 55 1014.2
20260507115018 16 12 1.6 6.4 0.00 0.00 0.00 55 1014.2
20260507114904 16 360 1.6 6.4 0.00 0.00 0.00 55 1014.1
20260507114720 16 346 3.2 6.4 0.00 0.00 0.00 55 1014.4
20260507114704 16 343 3.2 6.4 0.00 0.00 0.00 55 1014.2
20260507114604 16 329 3.2 6.4 0.00 0.00 0.00 55 1014.2
20260507114404 16 316 3.2 6.4 0.00 0.00 0.00 55 1014.1
20260507114304 16 317 3.2 11.3 0.00 0.00 0.00 55 1014.3
20260507114205 16 315 4.8 11.3 0.00 0.00 0.00 55 1014.2
20260507114104 16 309 3.2 11.3 0.00 0.00 0.00 55 1014.5
20260507114004 16 306 3.2 11.3 0.00 0.00 0.00 55 1014.1
20260507113920 16 306 3.2 11.3 0.00 0.00 0.00 54 1014.1
20260507113905 16 305 3.2 11.3 0.00 0.00 0.00 54 1014.1
20260507113804 16 302 3.2 11.3 0.00 0.00 0.00 54 1014.1
20260507113605 16 308 3.2 11.3 0.00 0.00 0.00 54 1014.1
20260507113505 16 309 3.2 11.3 0.00 0.00 0.00 54 1014.5
20260507113406 16 312 3.2 11.3 0.00 0.00 0.00 54 1014.3
20260507113306 17 311 3.2 9.7 0.00 0.00 0.00 54 1014.2
20260507113220 17 308 1.6 9.7 0.00 0.00 0.00 54 1014.2
20260507113205 17 309 1.6 9.7 0.00 0.00 0.00 54 1014.3
20260507113105 17 313 1.6 9.7 0.00 0.00 0.00 54 1014.0
20260507112906 17 309 3.2 11.3 0.00 0.00 0.00 54 1014.1
20260507112806 17 309 3.2 11.3 0.00 0.00 0.00 54 1014.3
20260507112706 17 309 3.2 11.3 0.00 0.00 0.00 54 1014.3
20260507112605 17 305 3.2 11.3 0.00 0.00 0.00 54 1014.2
20260507112506 17 304 3.2 11.3 0.00 0.00 0.00 54 1014.1
20260507112404 17 296 3.2 11.3 0.00 0.00 0.00 54 1014.1
20260507112307 17 286 3.2 11.3 0.00 0.00 0.00 54 1014.2
20260507112205 17 280 3.2 11.3 0.00 0.00 0.00 54 1014.0
20260507112121 17 282 3.2 11.3 0.00 0.00 0.00 54 1014.0
20260507112105 17 283 3.2 11.3 0.00 0.00 0.00 54 1013.7
20260507112005 17 280 3.2 11.3 0.00 0.00 0.00 54 1013.8
20260507111805 17 283 3.2 9.7 0.00 0.00 0.00 53 1014.0
20260507111706 17 286 3.2 9.7 0.00 0.00 0.00 53 1013.9
20260507111606 17 289 3.2 9.7 0.00 0.00 0.00 53 1013.8
20260507111506 17 284 3.2 9.7 0.00 0.00 0.00 53 1013.9
20260507111407 17 285 3.2 9.7 0.00 0.00 0.00 53 1013.9
20260507111306 17 284 3.2 9.7 0.00 0.00 0.00 53 1014.0
20260507111221 17 283 3.2 6.4 0.00 0.00 0.00 54 1014.0
20260507111206 17 283 3.2 6.4 0.00 0.00 0.00 54 1013.7
20260507111106 17 272 3.2 6.4 0.00 0.00 0.00 53 1013.8
20260507110906 17 269 3.2 6.4 0.00 0.00 0.00 53 1013.8
20260507110806 17 271 3.2 6.4 0.00 0.00 0.00 53 1014.2
20260507110719 17 265 3.2 6.4 0.00 0.00 0.00 53 1014.2
20260507110706 17 266 3.2 6.4 0.00 0.00 0.00 53 1013.9
20260507110606 17 265 3.2 6.4 0.00 0.00 0.00 53 1013.9
20260507110520 17 268 3.2 6.4 0.00 0.00 0.00 53 1013.9
20260507110419 17 266 3.2 6.4 0.00 0.00 0.00 53 1013.8
20260507110405 17 265 3.2 6.4 0.00 0.00 0.00 53 1013.9
20260507110121 17 264 1.6 4.8 0.00 0.00 0.00 53 1013.9
20260507110106 17 265 1.6 4.8 0.00 0.00 0.00 53 1013.8
20260507110005 17 268 1.6 4.8 0.00 0.00 0.00 53 1013.8
20260507105806 17 259 1.6 4.8 0.00 0.00 0.00 53 1013.9
20260507105706 17 259 1.6 4.8 0.00 0.00 0.00 53 1013.8
20260507105605 17 267 1.6 11.3 0.00 0.00 0.00 53 1013.8
20260507105506 17 276 1.6 11.3 0.00 0.00 0.00 53 1013.7
20260507105406 17 285 1.6 11.3 0.00 0.00 0.00 53 1013.7
20260507105320 17 284 3.2 11.3 0.00 0.00 0.00 53 1013.7
20260507105307 17 284 3.2 11.3 0.00 0.00 0.00 53 1013.4
20260507105205 17 279 3.2 11.3 0.00 0.00 0.00 53 1013.4
20260507105005 17 279 3.2 11.3 0.00 0.00 0.00 53 1013.3
20260507104905 17 282 3.2 11.3 0.00 0.00 0.00 53 1013.4
20260507104806 17 280 4.8 12.9 0.00 0.00 0.00 53 1013.3
20260507104721 17 279 3.2 12.9 0.00 0.00 0.00 53 1013.3
20260507104704 17 278 4.8 12.9 0.00 0.00 0.00 53 1013.2
20260507104606 17 272 3.2 12.9 0.00 0.00 0.00 53 1013.4
20260507104406 17 253 3.2 12.9 0.00 0.00 0.00 52 1013.2
20260507104306 17 251 3.2 12.9 0.00 0.00 0.00 52 1013.1
20260507104205 17 254 3.2 12.9 0.00 0.00 0.00 52 1013.5
20260507104121 17 253 3.2 12.9 0.00 0.00 0.00 52 1013.5
20260507104106 17 251 3.2 12.9 0.00 0.00 0.00 52 1013.3
20260507104006 17 249 3.2 12.9 0.00 0.00 0.00 52 1013.0
20260507103805 17 235 3.2 11.3 0.00 0.00 0.00 52 1013.2
20260507103706 17 237 3.2 11.3 0.00 0.00 0.00 52 1013.3
20260507103606 17 242 3.2 11.3 0.00 0.00 0.00 52 1013.0
20260507103520 17 245 3.2 11.3 0.00 0.00 0.00 52 1013.0
20260507103506 17 246 3.2 11.3 0.00 0.00 0.00 52 1012.9
20260507103406 17 246 3.2 11.3 0.00 0.00 0.00 52 1013.0
20260507103206 17 259 3.2 11.3 0.00 0.00 0.00 52 1013.1
20260507103106 17 260 3.2 11.3 0.00 0.00 0.00 52 1013.1
20260507103007 18 263 3.2 11.3 0.00 0.00 0.00 52 1012.9
20260507102906 18 265 3.2 11.3 0.00 0.00 0.00 52 1012.8
20260507102807 18 266 4.8 12.9 0.00 0.00 0.00 52 1013.1
20260507102706 18 269 4.8 12.9 0.00 0.00 0.00 52 1013.1
20260507102606 18 274 4.8 12.9 0.00 0.00 0.00 52 1013.1
20260507102520 18 281 4.8 12.9 0.00 0.00 0.00 52 1013.1
20260507102504 18 283 4.8 12.9 0.00 0.00 0.00 52 1013.2
20260507102206 18 285 6.4 17.7 0.00 0.00 0.00 52 1013.1
20260507102106 18 292 6.4 17.7 0.00 0.00 0.00 52 1012.8
20260507102006 18 295 6.4 17.7 0.00 0.00 0.00 52 1012.8
20260507101906 18 297 6.4 17.7 0.00 0.00 0.00 52 1012.8
20260507101806 18 304 6.4 17.7 0.00 0.00 0.00 52 1012.8
20260507101605 18 302 6.4 17.7 0.00 0.00 0.00 52 1012.7
20260507101507 18 302 6.4 17.7 0.00 0.00 0.00 52 1012.7
20260507101405 18 301 4.8 16.1 0.00 0.00 0.00 52 1012.8
20260507101321 18 300 4.8 16.1 0.00 0.00 0.00 52 1012.8
20260507101305 18 299 4.8 16.1 0.00 0.00 0.00 52 1012.9
20260507101205 18 307 4.8 14.5 0.00 0.00 0.00 52 1012.5
20260507101005 18 304 4.8 11.3 0.00 0.00 0.00 52 1012.6
20260507100905 18 300 4.8 11.3 0.00 0.00 0.00 52 1012.6
20260507100818 18 299 4.8 11.3 0.00 0.00 0.00 52 1012.6
20260507100806 18 300 4.8 11.3 0.00 0.00 0.00 52 1012.6
20260507100721 18 296 4.8 11.3 0.00 0.00 0.00 52 1012.6
20260507100705 18 297 4.8 11.3 0.00 0.00 0.00 52 1012.9
20260507100619 18 303 4.8 11.3 0.00 0.00 0.00 52 1012.9
20260507100306 18 304 4.8 11.3 0.00 0.00 0.00 52 1012.6
20260507100205 18 306 4.8 11.3 0.00 0.00 0.00 52 1012.7
20260507100106 18 306 4.8 11.3 0.00 0.00 0.00 52 1012.8
20260507100006 18 304 3.2 11.3 0.00 0.00 0.00 52 1012.5
20260507095906 18 306 3.2 11.3 0.00 0.00 0.00 52 1012.6
20260507095805 18 297 3.2 11.3 0.00 0.00 0.00 52 1012.4
20260507095706 18 299 3.2 11.3 0.00 0.00 0.00 52 1012.5
20260507095605 18 287 3.2 11.3 0.00 0.00 0.00 52 1012.7
20260507095505 18 282 3.2 11.3 0.00 0.00 0.00 52 1012.4
20260507095406 18 286 3.2 11.3 0.00 0.00 0.00 52 1012.4
20260507095306 18 286 3.2 11.3 0.00 0.00 0.00 52 1012.6
20260507095205 18 284 3.2 12.9 0.00 0.00 0.00 52 1012.4
20260507095106 18 282 3.2 12.9 0.00 0.00 0.00 52 1012.3
20260507095005 18 282 3.2 12.9 0.00 0.00 0.00 52 1012.4
20260507094905 18 280 3.2 14.5 0.00 0.00 0.00 51 1012.3
20260507094805 18 283 3.2 14.5 0.00 0.00 0.00 51 1012.2
20260507094704 18 285 3.2 14.5 0.00 0.00 0.00 52 1012.2
20260507094605 18 292 3.2 14.5 0.00 0.00 0.00 52 1012.3
20260507094520 18 294 3.2 14.5 0.00 0.00 0.00 52 1012.3
20260507094505 18 293 3.2 14.5 0.00 0.00 0.00 52 1012.1
20260507094406 18 291 3.2 14.5 0.00 0.00 0.00 52 1012.0
20260507094205 18 287 3.2 14.5 0.00 0.00 0.00 52 1012.2
20260507094104 18 284 3.2 14.5 0.00 0.00 0.00 52 1012.1
20260507094005 18 287 3.2 14.5 0.00 0.00 0.00 52 1012.1
20260507093905 18 292 3.2 14.5 0.00 0.00 0.00 52 1012.1
20260507093805 18 303 3.2 12.9 0.00 0.00 0.00 52 1012.0
20260507093705 18 312 3.2 12.9 0.00 0.00 0.00 52 1012.1
20260507093605 18 312 3.2 12.9 0.00 0.00 0.00 52 1012.0
20260507093506 18 312 3.2 12.9 0.00 0.00 0.00 52 1011.9
20260507093406 18 321 3.2 12.9 0.00 0.00 0.00 52 1012.0
20260507093306 18 326 3.2 12.9 0.00 0.00 0.00 52 1011.9
20260507093206 18 335 3.2 12.9 0.00 0.00 0.00 52 1011.9
20260507093120 19 324 3.2 14.5 0.00 0.00 0.00 52 1011.9
20260507093106 19 323 3.2 14.5 0.00 0.00 0.00 52 1012.0
20260507093005 19 323 3.2 14.5 0.00 0.00 0.00 52 1012.1
20260507092805 19 318 3.2 14.5 0.00 0.00 0.00 52 1012.1
20260507092705 19 312 3.2 14.5 0.00 0.00 0.00 52 1011.9
20260507092605 19 315 3.2 14.5 0.00 0.00 0.00 52 1011.6
20260507092506 19 315 3.2 14.5 0.00 0.00 0.00 52 1011.9
20260507092406 19 311 3.2 14.5 0.00 0.00 0.00 52 1011.8
20260507092319 19 301 3.2 14.5 0.00 0.00 0.00 52 1011.8
20260507092307 19 299 3.2 14.5 0.00 0.00 0.00 52 1011.5
20260507092204 19 294 3.2 14.5 0.00 0.00 0.00 52 1011.6
20260507092006 19 300 3.2 9.7 0.00 0.00 0.00 52 1011.6
20260507091906 19 299 3.2 11.3 0.00 0.00 0.00 52 1011.6
20260507091805 19 300 3.2 11.3 0.00 0.00 0.00 52 1011.5
20260507091704 19 293 3.2 11.3 0.00 0.00 0.00 52 1011.6
20260507091604 19 287 4.8 12.9 0.00 0.00 0.00 52 1011.6
20260507091505 19 286 4.8 17.7 0.00 0.00 0.00 52 1011.9
20260507091405 19 288 4.8 17.7 0.00 0.00 0.00 52 1011.6
20260507091321 19 286 4.8 17.7 0.00 0.00 0.00 52 1011.6
20260507091305 19 287 4.8 17.7 0.00 0.00 0.00 52 1011.4
20260507091205 19 285 4.8 17.7 0.00 0.00 0.00 52 1011.6
20260507091006 19 294 4.8 17.7 0.00 0.00 0.00 53 1011.6
20260507090905 19 295 4.8 17.7 0.00 0.00 0.00 52 1011.5
20260507090805 19 295 4.8 17.7 0.00 0.00 0.00 52 1011.4
20260507090705 19 299 4.8 17.7 0.00 0.00 0.00 52 1011.4
20260507090619 19 302 4.8 17.7 0.00 0.00 0.00 52 1011.4
20260507090605 19 301 4.8 17.7 0.00 0.00 0.00 52 1011.4
20260507090505 20 301 4.8 17.7 0.00 0.00 0.00 52 1011.6
20260507090305 20 301 3.2 17.7 0.00 0.00 0.00 52 1011.4
20260507090205 20 305 3.2 17.7 0.00 0.00 0.00 52 1011.6
20260507090106 20 299 4.8 17.7 0.00 0.00 0.00 52 1011.4
20260507090021 20 297 4.8 17.7 0.00 0.00 0.00 52 1011.4
20260507090005 20 296 4.8 17.7 0.00 0.00 0.00 52 1011.3
20260507085904 20 297 4.8 17.7 0.00 0.00 0.00 52 1011.8
20260507085706 20 294 4.8 17.7 0.00 0.00 0.00 53 1011.3
20260507085605 20 296 4.8 17.7 0.00 0.00 0.00 53 1011.3
20260507085520 20 298 4.8 17.7 0.00 0.00 0.00 53 1011.3
20260507085505 20 299 4.8 17.7 0.00 0.00 0.00 52 1011.3
20260507085406 20 305 4.8 17.7 0.00 0.00 0.00 52 1011.3
20260507085205 20 305 6.4 17.7 0.00 0.00 0.00 52 1011.4
20260507085106 20 308 4.8 17.7 0.00 0.00 0.00 52 1011.3
20260507085019 20 304 4.8 17.7 0.00 0.00 0.00 52 1011.3
20260507085005 20 301 4.8 17.7 0.00 0.00 0.00 52 1011.5
20260507084905 20 294 4.8 17.7 0.00 0.00 0.00 53 1011.5
20260507084706 20 301 4.8 14.5 0.00 0.00 0.00 53 1011.5
20260507084606 20 293 4.8 14.5 0.00 0.00 0.00 53 1011.3
20260507084505 20 291 4.8 12.9 0.00 0.00 0.00 53 1011.4
20260507084405 20 284 6.4 12.9 0.00 0.00 0.00 53 1011.4
20260507084321 20 285 6.4 12.9 0.00 0.00 0.00 53 1011.4
20260507084304 20 283 6.4 12.9 0.00 0.00 0.00 53 1011.2
20260507084206 20 281 4.8 12.9 0.00 0.00 0.00 53 1011.2
20260507084006 20 284 6.4 17.7 0.00 0.00 0.00 53 1011.2
20260507083906 20 293 6.4 17.7 0.00 0.00 0.00 53 1011.3
20260507083806 20 288 6.4 17.7 0.00 0.00 0.00 53 1011.3
20260507083705 20 286 6.4 17.7 0.00 0.00 0.00 53 1011.2
20260507083606 20 290 6.4 17.7 0.00 0.00 0.00 53 1011.2
20260507083505 20 293 6.4 17.7 0.00 0.00 0.00 53 1011.1
20260507083406 20 296 6.4 17.7 0.00 0.00 0.00 54 1011.1
20260507083319 20 296 6.4 17.7 0.00 0.00 0.00 53 1011.1
20260507083306 20 297 6.4 17.7 0.00 0.00 0.00 53 1011.0
20260507083206 20 301 6.4 17.7 0.00 0.00 0.00 53 1011.3
20260507083019 20 305 6.4 16.1 0.00 0.00 0.00 54 1011.2
20260507083005 20 307 6.4 16.1 0.00 0.00 0.00 54 1011.1
20260507082919 20 308 6.4 16.1 0.00 0.00 0.00 54 1011.1
20260507082905 20 307 6.4 16.1 0.00 0.00 0.00 54 1011.2
20260507082604 20 313 6.4 17.7 0.00 0.00 0.00 54 1010.9
20260507082522 20 314 6.4 17.7 0.00 0.00 0.00 54 1010.9
20260507082505 20 312 6.4 17.7 0.00 0.00 0.00 54 1011.2
20260507082405 20 311 6.4 17.7 0.00 0.00 0.00 54 1011.1
20260507082204 20 311 6.4 17.7 0.00 0.00 0.00 54 1010.8
20260507082105 20 308 6.4 17.7 0.00 0.00 0.00 54 1011.0
20260507082005 20 306 6.4 17.7 0.00 0.00 0.00 54 1010.9
20260507081906 20 307 6.4 17.7 0.00 0.00 0.00 54 1011.0
20260507081806 20 307 6.4 17.7 0.00 0.00 0.00 54 1010.9
20260507081705 20 308 6.4 17.7 0.00 0.00 0.00 54 1010.8
20260507081606 20 308 6.4 17.7 0.00 0.00 0.00 54 1010.7
20260507081519 20 307 6.4 16.1 0.00 0.00 0.00 54 1010.7
20260507081507 20 310 6.4 16.1 0.00 0.00 0.00 54 1010.7
20260507081406 20 313 6.4 16.1 0.00 0.00 0.00 54 1010.7
20260507081204 20 313 6.4 16.1 0.00 0.00 0.00 54 1010.8
20260507081105 20 315 6.4 16.1 0.00 0.00 0.00 54 1011.1
20260507081006 20 316 6.4 16.1 0.00 0.00 0.00 54 1010.8
20260507080906 20 312 4.8 16.1 0.00 0.00 0.00 54 1010.7
20260507080806 20 311 4.8 16.1 0.00 0.00 0.00 55 1010.9
20260507080705 20 311 4.8 16.1 0.00 0.00 0.00 55 1010.6
20260507080605 20 311 3.2 12.9 0.00 0.00 0.00 55 1010.9
20260507080506 20 311 3.2 11.3 0.00 0.00 0.00 54 1010.8
20260507080405 20 308 3.2 11.3 0.00 0.00 0.00 54 1010.8
20260507080321 20 304 3.2 11.3 0.00 0.00 0.00 54 1010.8
20260507080305 20 301 3.2 11.3 0.00 0.00 0.00 54 1010.9
20260507080205 20 295 3.2 9.7 0.00 0.03 0.00 54 1010.9
20260507080006 20 283 1.6 11.3 0.00 0.13 0.00 54 1010.7
20260507075904 20 286 1.6 11.3 0.00 0.13 0.00 54 1011.2
20260507075805 20 286 1.6 11.3 0.00 0.13 0.00 54 1010.9
20260507075705 20 287 3.2 11.3 0.00 0.13 0.00 54 1011.0
20260507075605 20 282 3.2 11.3 0.00 0.13 0.00 54 1011.0
20260507075505 20 278 3.2 11.3 0.00 0.13 0.00 54 1010.9
20260507075307 20 272 3.2 11.3 0.00 0.13 0.00 54 1010.7
20260507075221 20 276 3.2 11.3 0.00 0.13 0.00 54 1010.7
20260507075204 20 280 3.2 11.3 0.00 0.13 0.00 55 1010.9
20260507075120 20 286 3.2 11.3 0.00 0.13 0.00 55 1010.9
20260507075106 20 285 3.2 11.3 0.00 0.13 0.00 55 1010.7
20260507074921 20 296 3.2 11.3 0.00 0.13 0.00 55 1010.6
20260507074822 20 299 3.2 11.3 0.00 0.13 0.00 55 1010.8
20260507074806 20 299 3.2 11.3 0.00 0.13 0.00 55 1010.4
20260507074506 20 310 3.2 11.3 0.00 0.13 0.00 55 1010.7
20260507074406 20 315 3.2 11.3 0.00 0.13 0.00 55 1010.6
20260507074304 20 319 3.2 11.3 0.00 0.13 0.00 55 1010.4
20260507074206 20 319 3.2 11.3 0.00 0.13 0.00 55 1010.6
20260507074104 20 324 3.2 9.7 0.00 0.13 0.00 56 1010.5
20260507074018 20 324 3.2 9.7 0.00 0.13 0.00 56 1010.5
20260507074006 20 324 3.2 9.7 0.00 0.13 0.00 56 1010.4
20260507073906 20 318 3.2 9.7 0.00 0.13 0.00 56 1010.4
20260507073822 20 316 3.2 9.7 0.00 0.13 0.00 55 1010.4
20260507073705 20 309 3.2 6.4 0.00 0.13 0.00 56 1010.5
20260507073506 20 303 3.2 6.4 0.00 0.13 0.00 56 1010.3
20260507073405 21 299 3.2 6.4 0.00 0.13 0.00 56 1010.4
20260507073306 21 293 3.2 6.4 0.00 0.13 0.00 56 1010.5
20260507073219 21 289 3.2 6.4 0.00 0.13 0.00 56 1010.5
20260507073207 21 288 3.2 6.4 0.00 0.13 0.00 56 1010.6
20260507073105 21 285 3.2 9.7 0.00 0.13 0.00 56 1010.5
20260507073020 21 283 3.2 9.7 0.00 0.13 0.00 56 1010.5
20260507072904 21 281 3.2 9.7 0.00 0.13 0.00 55 1010.4
20260507072705 21 278 3.2 9.7 0.00 0.13 0.00 56 1010.4
20260507072605 21 273 3.2 9.7 0.00 0.13 0.00 56 1010.4
20260507072505 21 271 3.2 9.7 0.00 0.13 0.00 56 1010.5
20260507072420 21 272 1.6 9.7 0.00 0.13 0.00 56 1010.5
20260507072406 21 274 1.6 9.7 0.00 0.13 0.00 56 1010.4
20260507072307 21 285 3.2 9.7 0.00 0.13 0.00 56 1010.4
20260507072106 21 294 1.6 6.4 0.00 0.13 0.00 56 1010.5
20260507072006 21 291 1.6 6.4 0.00 0.13 0.00 56 1010.2
20260507071906 21 288 1.6 4.8 0.00 0.13 0.00 56 1010.3
20260507071806 21 294 1.6 4.8 0.00 0.13 0.00 56 1010.3
20260507071705 21 297 1.6 4.8 0.00 0.13 0.00 56 1010.0
20260507071618 21 300 1.6 4.8 0.00 0.13 0.00 56 1010.0
20260507071604 21 302 1.6 4.8 0.00 0.13 0.00 56 1010.2
20260507071506 21 305 1.6 4.8 0.00 0.13 0.00 56 1010.1
20260507071306 21 281 1.6 4.8 0.00 0.13 0.00 56 1010.0
20260507071204 21 274 1.6 4.8 0.00 0.13 0.00 57 1010.3
20260507071120 21 271 1.6 6.4 0.00 0.13 0.00 57 1010.3
20260507071106 21 271 1.6 6.4 0.00 0.13 0.00 57 1010.2
20260507071006 21 275 1.6 6.4 0.00 0.13 0.00 57 1010.1
20260507070806 21 273 1.6 6.4 0.00 0.13 0.00 57 1010.4
20260507070705 21 279 1.6 6.4 0.00 0.13 0.00 57 1010.1
20260507070604 21 280 1.6 6.4 0.00 0.13 0.00 57 1010.3
20260507070506 21 274 1.6 6.4 0.00 0.13 0.00 57 1010.1
20260507070406 21 274 1.6 9.7 0.00 0.13 0.00 57 1010.1
20260507070306 21 277 1.6 9.7 0.00 0.13 0.00 57 1010.0
20260507070204 21 288 1.6 9.7 0.00 0.13 0.00 57 1010.2
20260507070105 21 296 1.6 9.7 0.00 0.13 0.00 57 1010.1
20260507070010 21 297 1.6 9.7 0.00 0.13 0.00 57 1010.1
20260507065906 21 299 3.2 9.7 0.00 0.13 0.00 57 1010.1
20260507065806 21 300 3.2 9.7 0.00 0.13 0.00 57 1010.2
20260507065706 21 301 3.2 9.7 0.00 0.13 0.00 57 1010.1
20260507065606 21 303 3.2 9.7 0.00 0.13 0.00 57 1010.1
20260507065519 21 307 3.2 9.7 0.00 0.13 0.00 57 1010.1
20260507065505 21 308 3.2 9.7 0.00 0.13 0.00 57 1010.0
20260507065406 21 313 3.2 9.7 0.00 0.13 0.00 58 1010.3
20260507065205 22 315 3.2 6.4 0.00 0.13 0.00 58 1010.0
20260507065106 22 321 3.2 6.4 0.00 0.13 0.00 58 1010.0
20260507065006 22 322 3.2 6.4 0.00 0.13 0.00 58 1010.2
20260507064906 22 324 3.2 6.4 0.00 0.13 0.00 58 1010.0
20260507064805 22 321 3.2 6.4 0.00 0.13 0.00 58 1010.1
20260507064705 22 320 3.2 6.4 0.00 0.13 0.00 58 1010.2
20260507064606 22 320 3.2 6.4 0.00 0.13 0.00 58 1009.9
20260507064506 22 311 3.2 6.4 0.00 0.13 0.00 59 1010.0
20260507064405 22 309 3.2 11.3 0.00 0.13 0.00 59 1010.1
20260507064318 22 311 3.2 11.3 0.00 0.13 0.00 59 1010.1
20260507064305 22 311 3.2 11.3 0.00 0.13 0.00 59 1009.7
20260507064205 22 309 3.2 11.3 0.00 0.13 0.00 59 1010.0
20260507064005 22 306 3.2 12.9 0.00 0.13 0.00 59 1009.9
20260507063904 22 301 3.2 12.9 0.00 0.13 0.00 59 1009.9
20260507063805 22 304 3.2 12.9 0.00 0.13 0.00 59 1009.8
20260507063706 22 305 3.2 12.9 0.00 0.13 0.00 59 1010.0
20260507063606 22 311 3.2 12.9 0.00 0.13 0.00 59 1009.8
20260507063505 22 318 3.2 12.9 0.00 0.13 0.00 60 1009.8
20260507063419 22 325 3.2 12.9 0.00 0.13 0.00 60 1009.8
20260507063405 22 324 3.2 12.9 0.00 0.13 0.00 60 1009.6
20260507063306 22 321 3.2 12.9 0.00 0.13 0.00 60 1009.6
20260507063106 22 314 1.6 9.7 0.00 0.13 0.00 60 1010.1
20260507063006 22 313 1.6 9.7 0.00 0.13 0.00 60 1009.7
20260507062906 22 311 1.6 9.7 0.00 0.13 0.00 60 1009.8
20260507062821 22 309 3.2 9.7 0.00 0.13 0.00 60 1009.8
20260507062806 22 309 3.2 9.7 0.00 0.13 0.00 60 1009.7
20260507062719 22 307 1.6 9.7 0.00 0.13 0.00 60 1009.7
20260507062706 22 308 1.6 9.7 0.00 0.13 0.00 60 1009.6
20260507062405 22 296 1.6 6.4 0.00 0.13 0.00 60 1009.6
20260507062306 22 295 1.6 6.4 0.00 0.13 0.00 60 1009.9
20260507062220 22 293 1.6 6.4 0.00 0.13 0.00 61 1009.9
20260507062205 22 293 1.6 6.4 0.00 0.13 0.00 61 1009.9
20260507062119 22 289 1.6 6.4 0.00 0.13 0.00 61 1009.9
20260507062104 22 287 1.6 6.4 0.00 0.13 0.00 61 1009.7
20260507062018 22 285 1.6 6.4 0.00 0.13 0.00 61 1009.7
20260507061704 22 312 1.6 9.7 0.00 0.13 0.00 61 1009.8
20260507061604 22 328 1.6 9.7 0.00 0.13 0.00 61 1009.7
20260507061505 22 340 1.6 9.7 0.00 0.13 0.00 61 1009.7
20260507061405 22 338 1.6 9.7 0.00 0.13 0.00 61 1009.7
20260507061305 22 339 1.6 9.7 0.00 0.13 0.00 61 1009.7
20260507061206 22 343 1.6 9.7 0.00 0.13 0.00 61 1009.8
20260507061106 22 342 1.6 9.7 0.00 0.13 0.00 61 1009.6
20260507061006 22 337 1.6 9.7 0.00 0.13 0.00 61 1009.4
20260507060906 22 334 1.6 9.7 0.00 0.13 0.00 61 1009.6
20260507060806 22 330 1.6 9.7 0.00 0.13 0.00 61 1009.4
20260507060706 22 324 1.6 9.7 0.00 0.13 0.00 62 1009.5
20260507060605 22 327 1.6 4.8 0.00 0.13 0.00 62 1009.5
20260507060505 22 324 1.6 4.8 0.00 0.13 0.00 62 1009.5
20260507060405 22 327 1.6 3.2 0.00 0.13 0.00 62 1009.5
20260507060305 22 333 1.6 3.2 0.00 0.13 0.00 62 1009.5
20260507060206 22 337 1.6 3.2 0.00 0.13 0.00 61 1009.7
20260507060105 22 341 1.6 3.2 0.00 0.13 0.00 62 1009.6
20260507060005 22 352 1.6 4.8 0.00 0.13 0.00 61 1009.6
20260507055906 23 341 1.6 6.4 0.00 0.13 0.00 61 1009.6
20260507055807 23 334 1.6 6.4 0.00 0.13 0.00 62 1009.8
20260507055704 23 336 1.6 6.4 0.00 0.13 0.00 62 1009.6
20260507055606 23 307 1.6 6.4 0.00 0.13 0.00 62 1009.6
20260507055506 23 293 1.6 6.4 0.00 0.13 0.00 62 1009.5
20260507055406 23 293 1.6 6.4 0.00 0.13 0.00 62 1009.5
20260507055306 23 291 1.6 9.7 0.00 0.13 0.00 61 1009.6
20260507055206 23 290 1.6 9.7 0.00 0.13 0.00 62 1009.6
20260507055109 23 293 1.6 9.7 0.00 0.13 0.00 62 1009.6
20260507055021 23 293 1.6 9.7 0.00 0.13 0.00 62 1009.6
20260507055006 23 292 1.6 9.7 0.00 0.13 0.00 62 1009.5
20260507054906 23 296 1.6 9.7 0.00 0.13 0.00 62 1009.5
20260507054706 23 302 3.2 9.7 0.00 0.13 0.00 62 1009.5
20260507054606 23 306 3.2 9.7 0.00 0.13 0.00 62 1009.5
20260507054506 23 313 3.2 9.7 0.00 0.13 0.00 62 1009.3
20260507054406 23 314 3.2 9.7 0.00 0.13 0.00 62 1009.6
20260507054306 23 314 3.2 9.7 0.00 0.13 0.00 62 1009.5
20260507054206 23 314 3.2 12.9 0.00 0.13 0.00 62 1009.6
20260507054106 23 315 3.2 12.9 0.00 0.13 0.00 62 1009.3
20260507054006 23 314 3.2 12.9 0.00 0.13 0.00 62 1009.5
20260507053905 23 314 3.2 12.9 0.00 0.13 0.00 63 1009.5
20260507053805 23 319 3.2 12.9 0.00 0.13 0.00 63 1009.3
20260507053707 23 320 3.2 12.9 0.00 0.13 0.00 63 1009.4
20260507053606 23 321 3.2 12.9 0.00 0.13 0.00 63 1009.4
20260507053506 23 320 3.2 12.9 0.00 0.13 0.00 63 1009.3
20260507053406 23 322 3.2 12.9 0.00 0.13 0.00 63 1009.3
20260507053319 23 324 3.2 12.9 0.00 0.13 0.00 63 1009.3
20260507053306 23 324 3.2 12.9 0.00 0.13 0.00 63 1009.4
20260507053206 23 330 1.6 12.9 0.00 0.13 0.00 63 1009.3
20260507053006 23 335 1.6 6.4 0.00 0.13 0.00 63 1009.4
20260507052906 23 337 1.6 6.4 0.00 0.13 0.00 63 1009.2
20260507052819 23 340 1.6 6.4 0.00 0.13 0.00 63 1009.2
20260507052806 23 342 1.6 4.8 0.00 0.13 0.00 63 1009.4
20260507052706 23 343 1.6 11.3 0.00 0.13 0.00 63 1009.4
20260507052620 23 341 1.6 11.3 0.00 0.13 0.00 63 1009.4
20260507052506 23 346 1.6 11.3 0.00 0.13 0.00 63 1009.2
20260507052306 23 348 1.6 11.3 0.00 0.13 0.00 63 1009.3
20260507052205 23 347 1.6 11.3 0.00 0.13 0.00 63 1009.3
20260507052106 23 342 1.6 11.3 0.00 0.13 0.00 63 1009.3
20260507052006 23 340 1.6 11.3 0.00 0.13 0.00 62 1009.3
20260507051906 23 341 3.2 11.3 0.00 0.13 0.00 62 1009.3
20260507051805 23 338 3.2 11.3 0.00 0.13 0.00 62 1009.4
20260507051705 23 342 3.2 11.3 0.00 0.13 0.00 62 1009.2
20260507051620 23 343 3.2 9.7 0.00 0.13 0.00 62 1009.2
20260507051605 23 343 3.2 9.7 0.00 0.13 0.00 62 1009.3
20260507051506 23 340 3.2 9.7 0.00 0.13 0.00 62 1009.2
20260507051319 23 338 3.2 12.9 0.00 0.13 0.00 62 1009.2
20260507051305 23 338 3.2 12.9 0.00 0.13 0.00 62 1009.4
20260507051204 24 336 3.2 12.9 0.00 0.13 0.00 62 1009.4
20260507051119 24 340 3.2 12.9 0.00 0.13 0.00 62 1009.4
20260507051005 24 336 3.2 12.9 0.00 0.13 0.00 62 1009.3
20260507050805 24 328 3.2 16.1 0.00 0.13 0.00 63 1009.6
20260507050706 24 320 3.2 16.1 0.00 0.13 0.00 63 1009.2
20260507050606 24 313 3.2 16.1 0.00 0.13 0.00 63 1009.4
20260507050506 24 309 3.2 16.1 0.00 0.13 0.00 63 1009.5
20260507050406 24 299 3.2 16.1 0.00 0.13 0.00 63 1009.4
20260507050306 24 301 3.2 16.1 0.00 0.13 0.00 63 1009.4
20260507050206 24 304 3.2 16.1 0.00 0.13 0.00 63 1009.7
20260507050105 24 305 3.2 16.1 0.00 0.13 0.00 63 1009.5
20260507050006 24 311 3.2 16.1 0.00 0.13 0.00 63 1009.4
20260507045905 24 319 3.2 9.7 0.00 0.13 0.00 63 1009.5
20260507045806 24 324 3.2 9.7 0.00 0.13 0.00 63 1009.3
20260507045706 24 327 3.2 9.7 0.00 0.13 0.00 64 1009.4
20260507045606 24 330 3.2 9.7 0.00 0.13 0.00 63 1009.4
20260507045506 24 332 3.2 9.7 0.00 0.13 0.00 63 1009.4
20260507045406 24 337 3.2 12.9 0.00 0.13 0.00 64 1009.4
20260507045306 24 335 3.2 12.9 0.00 0.13 0.00 64 1009.5
20260507045206 24 331 3.2 12.9 0.00 0.13 0.00 64 1009.3
20260507045106 24 328 3.2 12.9 0.00 0.13 0.00 64 1009.4
20260507045004 24 329 3.2 12.9 0.00 0.13 0.00 63 1009.2
20260507044920 24 333 3.2 12.9 0.00 0.13 0.00 64 1009.2
20260507044905 24 333 4.8 12.9 0.00 0.13 0.00 64 1009.2
20260507044805 24 331 4.8 12.9 0.00 0.13 0.00 63 1009.6
20260507044606 24 335 4.8 12.9 0.00 0.13 0.00 63 1009.5
20260507044506 24 334 4.8 12.9 0.00 0.13 0.00 63 1009.3
20260507044421 24 333 4.8 12.9 0.00 0.13 0.00 64 1009.3
20260507044406 24 332 4.8 12.9 0.00 0.13 0.00 64 1009.5
20260507044305 24 329 4.8 12.9 0.00 0.13 0.00 64 1009.4
20260507044106 24 332 4.8 12.9 0.00 0.13 0.00 64 1009.4
20260507044019 24 326 3.2 12.9 0.00 0.13 0.00 64 1009.4
20260507044006 24 325 3.2 12.9 0.00 0.13 0.00 64 1009.4
20260507043920 24 318 3.2 12.9 0.00 0.13 0.00 64 1009.4
20260507043905 24 317 3.2 12.9 0.00 0.13 0.00 64 1009.6
20260507043605 24 305 3.2 11.3 0.00 0.13 0.00 65 1009.4
20260507043505 24 301 3.2 11.3 0.00 0.13 0.00 65 1009.4
20260507043405 24 304 3.2 11.3 0.00 0.13 0.00 64 1009.3
20260507043321 24 312 3.2 12.9 0.00 0.13 0.00 65 1009.3
20260507043305 24 313 3.2 14.5 0.00 0.13 0.00 65 1009.5
20260507043206 24 316 3.2 14.5 0.00 0.13 0.00 65 1009.6
20260507043121 24 315 4.8 14.5 0.00 0.13 0.00 65 1009.6
20260507043006 24 316 4.8 14.5 0.00 0.13 0.00 64 1009.5
20260507042804 24 319 4.8 14.5 0.00 0.13 0.00 64 1009.5
20260507042705 24 320 4.8 14.5 0.00 0.13 0.00 63 1009.6
20260507042605 24 320 4.8 14.5 0.00 0.13 0.00 64 1009.6
20260507042505 24 323 4.8 14.5 0.00 0.13 0.00 64 1009.8
20260507042406 24 325 4.8 14.5 0.00 0.13 0.00 64 1009.7
20260507042307 24 327 4.8 16.1 0.00 0.13 0.00 65 1009.6
20260507042205 24 330 4.8 16.1 0.00 0.13 0.00 65 1009.8
20260507042107 24 337 4.8 16.1 0.00 0.13 0.00 65 1009.8
20260507042005 24 335 4.8 16.1 0.00 0.13 0.00 65 1009.8
20260507041919 24 336 4.8 16.1 0.00 0.13 0.00 65 1009.8
20260507041905 24 336 4.8 16.1 0.00 0.13 0.00 65 1009.6
20260507041806 24 336 4.8 16.1 0.00 0.13 0.00 65 1009.7
20260507041606 24 334 4.8 16.1 0.00 0.13 0.00 65 1009.7
20260507041506 25 328 6.4 16.1 0.00 0.13 0.00 65 1009.7
20260507041405 25 323 6.4 16.1 0.00 0.13 0.00 65 1009.5
20260507041305 25 316 6.4 25.7 0.00 0.13 0.00 66 1009.8
20260507041220 25 313 6.4 25.7 0.00 0.13 0.00 65 1009.8
20260507041206 25 313 6.4 25.7 0.00 0.13 0.00 65 1009.7
20260507041105 25 311 6.4 25.7 0.00 0.13 0.00 65 1009.9
20260507040919 25 308 6.4 25.7 0.00 0.13 0.00 66 1009.8
20260507040906 25 308 6.4 25.7 0.00 0.13 0.00 66 1009.7
20260507040806 25 305 6.4 25.7 0.00 0.13 0.00 66 1009.6
20260507040719 25 303 6.4 25.7 0.00 0.13 0.00 66 1009.6
20260507040606 25 303 6.4 25.7 0.00 0.13 0.00 67 1009.6
20260507040404 25 309 6.4 25.7 0.00 0.13 0.00 67 1009.7
20260507040306 24 312 4.8 20.9 0.00 0.13 0.00 67 1009.6
20260507040204 25 307 6.4 20.9 0.00 0.13 0.00 67 1009.6
20260507040105 25 309 6.4 17.7 0.00 0.13 0.00 68 1009.6
20260507040005 24 313 6.4 17.7 0.00 0.13 0.00 68 1009.5
20260507035905 24 312 6.4 17.7 0.00 0.13 0.00 68 1009.6
20260507035806 24 316 6.4 17.7 0.00 0.13 0.00 67 1009.5
20260507035704 24 314 6.4 17.7 0.00 0.13 0.00 68 1009.6
20260507035605 24 312 6.4 17.7 0.00 0.13 0.00 67 1009.6
20260507035505 24 313 6.4 17.7 0.00 0.13 0.00 68 1009.7
20260507035406 24 314 6.4 17.7 0.00 0.13 0.00 68 1009.5
20260507035306 24 317 6.4 17.7 0.00 0.13 0.00 68 1009.8
20260507035204 24 320 6.4 17.7 0.00 0.13 0.00 68 1009.7
20260507035106 25 317 6.4 16.1 0.00 0.13 0.00 68 1009.6
20260507035006 25 313 6.4 22.5 0.00 0.13 0.00 69 1009.9
20260507034906 25 312 6.4 22.5 0.00 0.13 0.00 69 1009.9
20260507034806 25 307 8.0 22.5 0.00 0.13 0.00 69 1009.7
20260507034704 25 307 8.0 22.5 0.00 0.13 0.00 69 1009.7
20260507034606 25 311 8.0 22.5 0.00 0.13 0.00 69 1009.7
20260507034506 25 310 6.4 22.5 0.00 0.13 0.00 69 1009.7
20260507034406 25 310 6.4 22.5 0.00 0.13 0.00 70 1009.7
20260507034321 25 310 6.4 22.5 0.00 0.13 0.00 70 1009.7
20260507034306 25 308 6.4 22.5 0.00 0.13 0.00 70 1009.8
20260507034206 24 305 6.4 22.5 0.00 0.13 0.00 70 1009.7
20260507034006 24 312 6.4 20.9 0.00 0.13 0.00 71 1009.7
20260507033906 24 315 6.4 20.9 0.00 0.13 0.00 70 1009.6
20260507033806 24 322 6.4 17.7 0.00 0.13 0.00 71 1009.8
20260507033720 24 322 6.4 17.7 0.00 0.13 0.00 71 1009.8
20260507033706 24 324 6.4 17.7 0.00 0.13 0.00 71 1009.9
20260507033605 24 324 6.4 17.7 0.00 0.13 0.00 70 1009.6
20260507033405 24 322 6.4 17.7 0.00 0.13 0.00 71 1009.8
20260507033321 24 323 6.4 17.7 0.00 0.13 0.00 71 1009.8
20260507033304 24 324 6.4 17.7 0.00 0.13 0.00 71 1009.5
20260507033220 24 329 6.4 17.7 0.00 0.13 0.00 71 1009.5
20260507033206 24 329 6.4 17.7 0.00 0.13 0.00 71 1009.6
20260507033120 24 330 6.4 17.7 0.00 0.13 0.00 71 1009.6
20260507032820 24 331 6.4 17.7 0.00 0.13 0.00 72 1009.8
20260507032806 24 330 6.4 17.7 0.00 0.13 0.00 72 1009.6
20260507032720 24 328 6.4 17.7 0.00 0.13 0.00 72 1009.6
20260507032706 24 327 6.4 17.7 0.00 0.13 0.00 72 1009.6
20260507032619 24 331 6.4 17.7 0.00 0.13 0.00 73 1009.6
20260507032306 24 336 4.8 14.5 0.00 0.13 0.00 73 1009.6
20260507032219 25 327 4.8 20.9 0.00 0.13 0.00 73 1009.6
20260507032206 25 326 4.8 20.9 0.00 0.13 0.00 73 1009.7
20260507032105 25 321 4.8 20.9 0.00 0.13 0.00 74 1009.7
20260507031905 25 320 6.4 20.9 0.00 0.13 0.00 74 1009.6
20260507031820 25 318 6.4 20.9 0.00 0.13 0.00 74 1009.6
20260507031806 25 317 6.4 20.9 0.00 0.13 0.00 75 1009.9
20260507031705 25 319 6.4 20.9 0.00 0.13 0.00 75 1009.8
20260507031619 25 315 6.4 20.9 0.00 0.13 0.00 75 1009.8
20260507031519 24 312 6.4 20.9 0.00 0.13 0.00 74 1009.8
20260507031505 24 312 6.4 20.9 0.00 0.13 0.00 74 1009.9
20260507031205 24 318 6.4 16.1 0.00 0.13 0.00 75 1009.9
20260507031106 24 323 8.0 16.1 0.00 0.13 0.00 74 1010.1
20260507031005 24 329 8.0 33.8 0.00 0.13 0.00 75 1009.9
20260507030905 24 326 8.0 33.8 0.00 0.13 0.00 74 1009.9
20260507030806 24 328 8.0 33.8 0.00 0.13 0.00 75 1010.1
20260507030705 24 328 8.0 33.8 0.00 0.13 0.00 74 1009.8
20260507030605 24 333 8.0 33.8 0.00 0.13 0.00 74 1010.0
20260507030505 24 333 8.0 33.8 0.00 0.13 0.00 75 1009.9
20260507030406 24 326 8.0 33.8 0.00 0.13 0.00 75 1009.9
20260507030305 24 324 8.0 33.8 0.00 0.13 0.00 75 1010.2
20260507030219 24 324 8.0 33.8 0.00 0.13 0.00 75 1010.2
20260507030205 24 324 8.0 33.8 0.00 0.13 0.00 75 1010.1
20260507030106 24 323 8.0 33.8 0.00 0.13 0.00 75 1010.1
20260507030020 24 321 6.4 33.8 0.00 0.13 0.00 75 1010.1
20260507025905 24 320 6.4 20.9 0.00 0.13 0.00 75 1010.0
20260507025720 24 322 4.8 20.9 0.00 0.13 0.00 76 1010.1
20260507025705 24 322 4.8 20.9 0.00 0.13 0.00 76 1010.1
20260507025606 24 309 4.8 20.9 0.00 0.13 0.00 76 1010.0
20260507025420 24 323 4.8 16.1 0.00 0.13 0.00 76 1010.0
20260507025406 24 324 4.8 16.1 0.00 0.13 0.00 76 1010.0
20260507025306 24 329 4.8 16.1 0.00 0.13 0.00 77 1010.0
20260507025106 24 328 4.8 16.1 0.00 0.13 0.00 77 1010.2
20260507025006 24 326 4.8 16.1 0.00 0.13 0.00 77 1010.0
20260507024906 24 317 4.8 22.5 0.00 0.13 0.00 77 1010.1
20260507024806 24 313 4.8 22.5 0.00 0.13 0.00 77 1010.0
20260507024704 24 314 4.8 22.5 0.00 0.13 0.00 77 1010.0
20260507024606 24 312 4.8 22.5 0.00 0.13 0.00 78 1010.0
20260507024506 24 312 4.8 22.5 0.00 0.13 0.00 78 1009.9
20260507024406 24 310 4.8 22.5 0.00 0.13 0.00 77 1009.9
20260507024306 24 308 4.8 22.5 0.00 0.13 0.00 77 1010.1
20260507024206 24 307 4.8 22.5 0.00 0.13 0.00 77 1009.8
20260507024106 24 306 4.8 22.5 0.00 0.13 0.00 77 1010.0
20260507024007 24 305 4.8 22.5 0.00 0.13 0.00 78 1010.5
20260507023919 24 313 3.2 11.3 0.00 0.13 0.00 78 1010.5
20260507023906 24 313 3.2 11.3 0.00 0.13 0.00 78 1010.0
20260507023806 24 309 3.2 11.3 0.00 0.13 0.00 78 1010.1
20260507023605 24 299 4.8 22.5 0.00 0.13 0.00 78 1009.9
20260507023506 24 300 4.8 22.5 0.00 0.13 0.00 79 1010.1
20260507023405 24 302 6.4 22.5 0.00 0.13 0.00 79 1009.9
20260507023305 24 304 6.4 22.5 0.00 0.13 0.00 79 1010.1
20260507023205 24 304 6.4 22.5 0.00 0.13 0.00 78 1010.2
20260507023105 24 304 6.4 22.5 0.00 0.13 0.00 79 1010.2
20260507023005 24 302 6.4 22.5 0.00 0.13 0.00 78 1010.1
20260507022904 24 299 6.4 22.5 0.00 0.13 0.00 79 1010.2
20260507022804 24 299 6.4 22.5 0.00 0.13 0.00 79 1010.2
20260507022705 24 298 6.4 22.5 0.00 0.13 0.00 80 1010.4
20260507022605 24 299 6.4 22.5 0.00 0.13 0.00 80 1010.2
20260507022506 24 300 6.4 17.7 0.00 0.13 0.00 80 1010.5
20260507022405 23 304 6.4 17.7 0.00 0.13 0.00 80 1010.4
20260507022306 23 305 6.4 17.7 0.00 0.13 0.00 79 1010.5
20260507022221 23 305 6.4 20.9 0.00 0.13 0.00 79 1010.5
20260507022206 23 305 6.4 20.9 0.00 0.13 0.00 79 1010.4
20260507022106 23 302 8.0 20.9 0.00 0.13 0.00 80 1010.5
20260507022018 23 301 8.0 22.5 0.00 0.13 0.00 80 1010.5
20260507021904 23 303 8.0 22.5 0.00 0.13 0.00 80 1010.4
20260507021705 23 313 8.0 22.5 0.00 0.13 0.00 81 1010.6
20260507021606 23 317 8.0 22.5 0.00 0.13 0.00 81 1010.4
20260507021506 23 315 8.0 22.5 0.00 0.13 0.00 79 1010.5
20260507021405 23 309 8.0 22.5 0.00 0.13 0.00 81 1010.6
20260507021306 23 306 8.0 22.5 0.00 0.13 0.00 81 1010.6
20260507021206 23 308 8.0 22.5 0.00 0.13 0.00 81 1010.6
20260507021104 23 313 6.4 22.5 0.00 0.13 0.00 81 1010.4
20260507021020 23 315 6.4 20.9 0.00 0.13 0.00 82 1010.4
20260507021006 23 315 6.4 20.9 0.00 0.13 0.00 82 1010.6
20260507020905 23 317 6.4 20.9 0.00 0.13 0.00 82 1010.7
20260507020705 23 313 4.8 20.9 0.00 0.13 0.00 82 1011.0
20260507020606 23 304 4.8 20.9 0.00 0.13 0.00 83 1010.6
20260507020506 23 307 6.4 20.9 0.00 0.13 0.00 83 1010.8
20260507020406 23 309 4.8 20.9 0.00 0.13 0.00 83 1010.9
20260507020320 23 310 4.8 20.9 0.00 0.13 0.00 82 1010.9
20260507020306 23 312 4.8 20.9 0.00 0.13 0.00 82 1010.7
20260507020204 23 313 4.8 20.9 0.00 0.13 0.00 83 1010.6
20260507020119 23 311 4.8 20.9 0.00 0.13 0.00 82 1010.6
20260507020005 23 312 4.8 20.9 0.00 0.13 0.00 83 1011.0
20260507015805 22 315 6.4 20.9 0.00 0.13 0.00 83 1010.8
20260507015705 22 313 6.4 20.9 0.00 0.13 0.00 83 1010.7
20260507015619 22 315 6.4 24.1 0.00 0.13 0.00 83 1010.7
20260507015605 22 317 6.4 24.1 0.00 0.13 0.00 83 1010.8
20260507015506 22 312 6.4 24.1 0.00 0.13 0.00 83 1010.7
20260507015306 22 308 6.4 24.1 0.00 0.13 0.00 83 1010.9
20260507015205 22 307 6.4 24.1 0.00 0.13 0.00 83 1011.0
20260507015105 22 309 8.0 24.1 0.00 0.13 0.00 82 1010.9
20260507015006 22 306 8.0 24.1 0.00 0.13 0.00 82 1010.8
20260507014906 22 306 8.0 24.1 0.00 0.13 0.00 83 1010.6
20260507014821 22 303 8.0 24.1 0.00 0.13 0.00 83 1010.6
20260507014806 22 304 8.0 24.1 0.00 0.13 0.00 83 1010.7
20260507014718 22 304 9.7 24.1 0.00 0.13 0.00 83 1010.7
20260507014706 22 304 9.7 24.1 0.00 0.13 0.00 83 1010.9
20260507014404 23 311 8.0 22.5 0.00 0.13 0.00 83 1010.8
20260507014306 22 313 8.0 22.5 0.00 0.13 0.00 83 1010.8
20260507014204 23 314 8.0 22.5 0.00 0.13 0.00 83 1010.9
20260507014104 23 313 8.0 22.5 0.00 0.13 0.00 83 1010.9
20260507014006 23 316 6.4 22.5 0.00 0.13 0.00 83 1011.1
20260507013906 23 317 6.4 22.5 0.00 0.13 0.00 84 1011.0
20260507013806 22 322 6.4 22.5 0.00 0.13 0.00 83 1010.9
20260507013706 22 323 6.4 22.5 0.00 0.13 0.00 84 1011.2
20260507013606 22 327 6.4 16.1 0.00 0.13 0.00 83 1011.0
20260507013506 23 323 6.4 14.5 0.00 0.13 0.00 84 1011.0
20260507013406 23 326 6.4 14.5 0.00 0.13 0.00 83 1010.9
20260507013305 23 323 6.4 14.5 0.00 0.13 0.00 84 1011.0
20260507013205 23 321 6.4 14.5 0.00 0.13 0.00 83 1010.9
20260507013104 23 320 6.4 14.5 0.00 0.13 0.00 84 1011.1
20260507013020 23 319 6.4 17.7 0.00 0.13 0.00 84 1011.1
20260507013005 23 319 6.4 17.7 0.00 0.13 0.00 84 1011.0
20260507012906 23 318 6.4 17.7 0.00 0.13 0.00 84 1010.9
20260507012705 23 315 6.4 20.9 0.00 0.13 0.00 84 1011.1
20260507012620 23 313 8.0 20.9 0.00 0.13 0.00 84 1011.1
20260507012606 23 315 8.0 20.9 0.00 0.13 0.00 85 1011.0
20260507012506 23 315 6.4 20.9 0.00 0.13 0.00 85 1011.0
20260507012307 23 316 6.4 20.9 0.00 0.13 0.00 85 1011.0
20260507012205 23 319 6.4 20.9 0.00 0.13 0.00 85 1010.8
20260507012119 23 315 6.4 20.9 0.00 0.13 0.00 85 1010.8
20260507012105 23 315 6.4 20.9 0.00 0.13 0.00 85 1011.3
20260507012020 23 312 6.4 20.9 0.00 0.13 0.00 85 1011.3
20260507012005 23 311 6.4 20.9 0.00 0.13 0.00 85 1011.2
20260507011705 23 308 4.8 16.1 0.00 0.13 0.00 86 1011.2
20260507011604 23 313 4.8 16.1 0.00 0.13 0.00 86 1011.2
20260507011505 23 310 4.8 16.1 0.00 0.13 0.00 86 1011.2
20260507011405 23 313 4.8 16.1 0.00 0.13 0.00 86 1011.2
20260507011305 23 311 4.8 16.1 0.00 0.13 0.00 86 1011.3
20260507011205 23 312 6.4 16.1 0.00 0.13 0.00 86 1011.4
20260507011106 23 315 6.4 16.1 0.00 0.13 0.00 86 1011.5
20260507011005 23 321 6.4 16.1 0.00 0.13 0.00 86 1011.3
20260507010904 23 319 6.4 16.1 0.00 0.13 0.00 86 1011.3
20260507010804 23 321 6.4 16.1 0.00 0.13 0.00 85 1011.6
20260507010706 23 317 6.4 16.1 0.00 0.13 0.00 85 1011.6
20260507010605 23 315 6.4 16.1 0.00 0.13 0.00 86 1011.4
20260507010506 23 314 6.4 16.1 0.00 0.13 0.00 87 1011.8
20260507010404 23 309 6.4 16.1 0.00 0.13 0.00 86 1011.5
20260507010305 23 302 6.4 16.1 0.00 0.13 0.00 86 1011.5
20260507010205 23 298 6.4 16.1 0.00 0.13 0.00 86 1011.5
20260507010119 23 294 6.4 16.1 0.00 0.13 0.00 86 1011.5
20260507010104 23 293 6.4 16.1 0.00 0.13 0.00 86 1011.5
20260507010005 23 289 6.4 16.1 0.00 0.13 0.00 87 1011.3
20260507005804 23 286 6.4 16.1 0.00 0.13 0.00 87 1011.4
20260507005705 23 289 6.4 16.1 0.00 0.13 0.00 87 1011.4
20260507005604 23 289 6.4 16.1 0.00 0.13 0.00 87 1011.6
20260507005505 23 293 6.4 16.1 0.00 0.13 0.00 87 1011.8
20260507005405 23 292 4.8 16.1 0.00 0.13 0.00 88 1011.5
20260507005306 23 303 4.8 12.9 0.00 0.13 0.00 88 1011.4
20260507005206 23 309 4.8 12.9 0.00 0.13 0.00 88 1011.6
20260507005105 23 317 3.2 12.9 0.00 0.13 0.00 88 1011.5
20260507005006 22 320 3.2 12.9 0.00 0.13 0.00 89 1011.8
20260507004905 22 324 3.2 12.9 0.00 0.13 0.00 89 1011.8
20260507004806 22 328 3.2 12.9 0.00 0.13 0.00 88 1011.5
20260507004705 22 326 3.2 9.7 0.00 0.13 0.00 89 1011.6
20260507004606 22 320 3.2 9.7 0.00 0.13 0.00 89 1011.6
20260507004505 22 317 3.2 9.7 0.00 0.13 0.00 89 1011.9
20260507004404 22 318 3.2 9.7 0.00 0.13 0.00 89 1011.9
20260507004306 22 313 3.2 9.7 0.00 0.13 0.00 89 1011.9
20260507004206 22 311 3.2 9.7 0.00 0.13 0.00 89 1011.6
20260507004119 22 312 3.2 9.7 0.00 0.13 0.00 89 1011.6
20260507004106 22 311 3.2 9.7 0.00 0.13 0.00 89 1011.8
20260507004005 22 311 3.2 9.7 0.00 0.13 0.00 89 1011.9
20260507003806 22 304 3.2 9.7 0.00 0.13 0.00 89 1011.8
20260507003704 22 304 3.2 9.7 0.00 0.13 0.00 89 1012.0
20260507003606 22 305 3.2 9.7 0.00 0.13 0.00 89 1011.9
20260507003506 22 302 4.8 11.3 0.00 0.13 0.00 89 1011.9
20260507003419 22 300 4.8 11.3 0.00 0.13 0.00 89 1011.9
20260507003406 22 301 4.8 11.3 0.00 0.13 0.00 89 1012.2
20260507003305 22 302 4.8 11.3 0.00 0.13 0.00 89 1012.1
20260507003120 22 293 4.8 11.3 0.00 0.13 0.00 89 1012.1
20260507003104 22 294 4.8 11.3 0.00 0.13 0.00 89 1012.0
20260507003022 22 293 4.8 11.3 0.00 0.13 0.00 89 1012.0
20260507003004 22 293 4.8 11.3 0.00 0.13 0.00 89 1012.1
20260507002821 22 295 4.8 11.3 0.00 0.13 0.00 89 1012.2
20260507002706 22 297 4.8 11.3 0.00 0.13 0.00 89 1012.4
20260507002506 22 303 4.8 11.3 0.00 0.13 0.00 89 1012.3
20260507002421 22 300 4.8 11.3 0.00 0.13 0.00 89 1012.3
20260507002404 22 300 4.8 11.3 0.00 0.13 0.00 89 1012.6
20260507002306 22 300 4.8 11.3 0.00 0.13 0.00 89 1012.4
20260507002106 22 307 4.8 11.3 0.00 0.13 0.00 90 1012.5
20260507002006 22 309 4.8 11.3 0.00 0.13 0.00 90 1012.5
20260507001905 22 313 3.2 11.3 0.00 0.13 0.00 89 1012.5
20260507001804 22 314 3.2 11.3 0.00 0.13 0.00 89 1012.5
20260507001704 22 319 3.2 11.3 0.00 0.13 0.00 90 1012.7
20260507001605 22 323 3.2 11.3 0.00 0.13 0.00 90 1012.6
20260507001506 22 327 3.2 11.3 0.00 0.13 0.00 90 1012.4
20260507001405 22 336 3.2 11.3 0.00 0.13 0.00 90 1012.5
20260507001305 22 339 3.2 6.4 0.00 0.13 0.00 90 1012.6
20260507001205 22 338 1.6 6.4 0.00 0.13 0.00 90 1012.6
20260507001104 22 333 1.6 4.8 0.00 0.13 0.00 90 1012.7
20260507001022 22 326 1.6 4.8 0.00 0.13 0.00 90 1012.7
20260507001004 22 324 1.6 4.8 0.00 0.13 0.00 90 1012.7
20260507000905 22 319 1.6 4.8 0.00 0.13 0.00 90 1012.5
20260507000719 22 315 1.6 4.8 0.00 0.13 0.00 90 1012.5
20260507000706 22 314 1.6 4.8 0.00 0.13 0.00 90 1012.5
20260507000606 22 309 1.6 4.8 0.00 0.13 0.00 90 1012.7
20260507000406 21 313 1.6 4.8 0.00 0.13 0.00 90 1012.6
20260507000306 21 318 1.6 4.8 0.00 0.13 0.00 91 1012.6
20260507000205 21 317 1.6 4.8 0.00 0.13 0.00 90 1012.8
20260507000106 21 317 1.6 4.8 0.00 0.13 0.00 90 1012.6
20260507000006 21 323 1.6 4.8 0.00 0.13 0.00 91 1012.6
20260506235905 21 339 1.6 4.8 0.00 0.13 0.00 91 1012.7
20260506235806 21 331 1.6 4.8 0.00 0.13 0.00 91 1012.6
20260506235706 21 318 1.6 4.8 0.00 0.13 0.00 91 1012.6
20260506235606 21 308 1.6 4.8 0.00 0.13 0.00 91 1012.6
20260506235519 21 300 1.6 4.8 0.00 0.13 0.00 91 1012.6
20260506235505 21 299 1.6 4.8 0.00 0.13 0.00 91 1012.7
20260506235407 21 293 1.6 11.3 0.00 0.13 0.00 91 1012.7
20260506235320 21 281 1.6 11.3 0.00 0.13 0.00 91 1012.7
20260506235220 21 280 3.2 11.3 0.00 0.13 0.00 91 1012.6
20260506235206 21 281 3.2 11.3 0.00 0.13 0.00 91 1012.9
20260506234905 21 277 1.6 11.3 0.00 0.13 0.00 91 1012.6
20260506234805 21 279 1.6 11.3 0.00 0.13 0.00 91 1012.8
20260506234705 21 280 1.6 11.3 0.00 0.13 0.00 91 1013.1
20260506234620 21 278 1.6 11.3 0.00 0.13 0.00 91 1013.1
20260506234604 21 277 1.6 11.3 0.00 0.13 0.00 91 1013.1
20260506234506 21 276 1.6 11.3 0.00 0.13 0.00 91 1012.7
20260506234305 21 293 3.2 16.1 0.00 0.13 0.00 91 1012.9
20260506234204 21 300 3.2 16.1 0.00 0.13 0.00 91 1012.9
20260506234104 21 307 3.2 16.1 0.00 0.13 0.00 91 1012.8
20260506234021 21 310 3.2 16.1 0.00 0.13 0.00 91 1012.8
20260506234004 21 311 3.2 16.1 0.00 0.13 0.00 91 1012.9
20260506233906 21 308 3.2 16.1 0.00 0.13 0.00 91 1012.7
20260506233706 21 299 4.8 16.1 0.00 0.13 0.00 91 1013.0
20260506233620 21 295 4.8 16.1 0.00 0.13 0.00 91 1013.0
20260506233605 21 296 4.8 16.1 0.00 0.13 0.00 91 1013.0
20260506233504 21 299 4.8 16.1 0.00 0.13 0.00 91 1013.0
20260506233306 21 302 3.2 11.3 0.00 0.13 0.00 91 1012.9
20260506233206 21 296 3.2 12.9 0.00 0.13 0.00 91 1012.8
20260506233106 21 290 3.2 12.9 0.00 0.13 0.00 91 1012.8
20260506233005 21 287 3.2 12.9 0.00 0.13 0.00 91 1012.9
20260506232906 21 295 3.2 12.9 0.00 0.13 0.00 92 1013.0
20260506232806 21 303 3.2 12.9 0.00 0.13 0.00 92 1013.1
20260506232707 20 310 3.2 12.9 0.00 0.13 0.00 92 1013.1
20260506232606 20 322 3.2 12.9 0.00 0.13 0.00 92 1013.0
20260506232506 20 328 3.2 12.9 0.00 0.13 0.00 92 1013.3
20260506232406 20 333 1.6 12.9 0.00 0.13 0.00 92 1013.2
20260506232321 20 339 1.6 12.9 0.00 0.13 0.00 92 1013.2
20260506232307 20 341 1.6 12.9 0.00 0.13 0.00 92 1013.1
20260506232206 20 24 1.6 6.4 0.00 0.13 0.00 92 1013.0
20260506232006 20 67 1.6 6.4 0.00 0.13 0.00 92 1013.0
20260506231906 20 66 1.6 9.7 0.00 0.13 0.00 92 1013.0
20260506231805 20 45 1.6 9.7 0.00 0.13 0.00 92 1012.9
20260506231704 20 351 3.2 12.9 0.00 0.13 0.00 92 1013.0
20260506231605 20 328 3.2 12.9 0.00 0.13 0.00 92 1013.0
20260506231505 20 315 3.2 12.9 0.00 0.13 0.00 92 1013.1
20260506231405 20 314 3.2 12.9 0.00 0.13 0.00 92 1013.0
20260506231306 20 306 4.8 12.9 0.00 0.13 0.00 92 1012.9
20260506231205 20 300 4.8 12.9 0.00 0.13 0.00 92 1012.9
20260506231120 20 298 4.8 12.9 0.00 0.13 0.00 92 1012.9
20260506231104 20 297 4.8 12.9 0.00 0.13 0.00 92 1013.1
20260506231005 20 293 4.8 12.9 0.00 0.13 0.00 92 1013.0
20260506230805 20 293 4.8 12.9 0.00 0.13 0.00 92 1012.9
20260506230705 20 293 4.8 12.9 0.00 0.13 0.00 92 1013.1
20260506230604 20 297 4.8 11.3 0.00 0.13 0.00 93 1013.1
20260506230520 20 300 3.2 11.3 0.00 0.13 0.00 93 1013.1
20260506230504 20 302 3.2 11.3 0.00 0.13 0.00 93 1012.9
20260506230404 20 304 3.2 11.3 0.00 0.13 0.00 93 1012.9
20260506230205 20 311 4.8 11.3 0.00 0.13 0.00 93 1013.1
20260506230104 20 315 4.8 11.3 0.00 0.13 0.00 93 1013.1
20260506230006 20 317 4.8 11.3 0.00 0.13 0.00 93 1013.1
20260506225904 20 318 4.8 11.3 0.00 0.13 0.13 93 1013.1
20260506225804 20 311 3.2 9.7 0.00 0.13 0.13 93 1013.1
20260506225705 20 314 3.2 9.7 0.00 0.13 0.13 93 1013.0
20260506225604 20 311 3.2 9.7 0.00 0.13 0.13 93 1012.7
20260506225505 20 302 3.2 9.7 0.00 0.13 0.13 93 1012.9
20260506225404 20 297 3.2 9.7 0.00 0.13 0.13 93 1013.0
20260506225321 20 297 3.2 9.7 0.00 0.13 0.13 93 1013.0
20260506225306 20 296 3.2 9.7 0.00 0.13 0.13 93 1012.9
20260506225206 19 301 3.2 9.7 0.00 0.13 0.13 93 1013.1
20260506225005 19 286 3.2 9.7 0.00 0.13 0.13 93 1013.0
20260506224904 19 282 3.2 9.7 0.00 0.13 0.13 94 1013.0
20260506224804 19 281 1.6 9.7 0.00 0.13 0.13 94 1013.2
20260506224604 19 283 3.2 9.7 0.00 0.13 0.13 94 1013.0
20260506224505 19 296 1.6 6.4 0.00 0.13 0.13 94 1013.1
20260506224405 19 306 1.6 6.4 0.00 0.13 0.13 94 1013.1
20260506224319 19 304 1.6 6.4 0.00 0.13 0.13 94 1013.1
20260506224304 19 302 1.6 6.4 0.00 0.13 0.13 94 1013.1
20260506224205 19 300 1.6 6.4 0.00 0.13 0.13 94 1013.0
20260506224005 19 300 3.2 6.4 0.00 0.13 0.13 94 1013.2
20260506223905 18 296 3.2 6.4 0.00 0.13 0.13 94 1013.1
20260506223804 18 293 3.2 6.4 0.00 0.13 0.13 94 1013.0
20260506223705 18 290 3.2 6.4 0.00 0.13 0.13 94 1012.9
20260506223604 18 290 3.2 6.4 0.00 0.13 0.13 94 1013.0
20260506223504 18 289 3.2 6.4 0.00 0.13 0.13 94 1013.0
20260506223405 18 284 3.2 6.4 0.00 0.13 0.13 94 1013.2
20260506223304 18 278 1.6 6.4 0.00 0.13 0.13 94 1013.3
20260506223204 18 272 1.6 6.4 0.00 0.13 0.13 94 1013.0
20260506223104 18 269 1.6 6.4 0.00 0.13 0.13 94 1013.2
20260506223006 18 268 1.6 6.4 0.00 0.13 0.13 94 1013.2
20260506222904 18 270 1.6 6.4 0.00 0.13 0.13 94 1013.1
20260506222805 18 277 1.6 6.4 0.00 0.13 0.13 94 1013.1
20260506222704 18 293 0.0 3.2 0.00 0.13 0.13 94 1013.1
20260506222604 18 293 0.0 3.2 0.00 0.13 0.13 94 1013.1
20260506222520 18 293 0.0 3.2 0.00 0.13 0.13 94 1013.1
20260506222504 18 293 0.0 3.2 0.00 0.13 0.13 94 1013.0
20260506222420 18 293 0.0 3.2 0.00 0.13 0.13 94 1013.0
20260506222404 18 293 0.0 3.2 0.00 0.13 0.13 94 1013.1
20260506222107 18 293 0.0 1.6 0.00 0.13 0.13 94 1013.0
20260506222005 18 293 0.0 1.6 0.00 0.13 0.13 94 1013.2
20260506221906 17 293 0.0 1.6 0.00 0.13 0.13 94 1013.0
20260506221804 17 293 1.6 1.6 0.00 0.13 0.13 94 1013.2
20260506221706 17 293 1.6 1.6 0.00 0.13 0.13 94 1013.1
20260506221606 17 293 1.6 1.6 0.00 0.13 0.13 94 1013.1
20260506221505 17 293 0.0 1.6 0.00 0.13 0.13 94 1013.1
20260506221405 17 293 0.0 1.6 0.00 0.13 0.13 94 1013.0
20260506221321 17 293 0.0 1.6 0.00 0.13 0.13 94 1013.0
20260506221305 17 293 0.0 1.6 0.00 0.13 0.13 94 1013.1
20260506221206 17 293 0.0 3.2 0.00 0.13 0.13 94 1013.1
20260506221005 17 293 0.0 3.2 0.00 0.13 0.13 94 1013.0
20260506220919 17 293 0.0 3.2 0.00 0.13 0.13 94 1013.0
20260506220905 17 293 0.0 3.2 0.00 0.13 0.13 94 1013.1
20260506220805 17 293 0.0 3.2 0.00 0.13 0.13 94 1013.2
20260506220604 17 293 0.0 3.2 0.00 0.13 0.13 94 1013.2
20260506220505 17 302 1.6 3.2 0.00 0.13 0.13 94 1013.3
20260506220404 17 312 1.6 3.2 0.00 0.13 0.13 94 1013.2
20260506220306 17 314 1.6 3.2 0.00 0.13 0.13 94 1012.9
20260506220206 17 323 1.6 6.4 0.00 0.13 0.13 94 1012.9
20260506220120 17 321 1.6 6.4 0.00 0.13 0.13 94 1013.1
20260506220106 17 320 1.6 6.4 0.00 0.13 0.13 94 1013.1
20260506220006 17 320 1.6 6.4 0.00 0.13 0.13 94 1013.0
20260506215805 17 321 3.2 6.4 0.00 0.13 0.13 94 1013.0
20260506215705 17 321 3.2 6.4 0.00 0.13 0.13 94 1012.8
20260506215604 17 323 3.2 6.4 0.00 0.13 0.13 94 1013.1
20260506215504 17 323 3.2 6.4 0.00 0.13 0.13 94 1012.9
20260506215404 17 321 3.2 6.4 0.00 0.13 0.13 94 1012.9
20260506215319 17 319 3.2 6.4 0.00 0.13 0.13 94 1012.9
20260506215306 17 320 3.2 6.4 0.00 0.13 0.13 94 1013.0
20260506215221 17 316 3.2 6.4 0.00 0.13 0.13 94 1013.0
20260506215205 17 315 3.2 6.4 0.00 0.13 0.13 94 1013.1
20260506214904 17 318 3.2 6.4 0.00 0.13 0.13 94 1013.1
20260506214806 17 318 3.2 6.4 0.00 0.13 0.13 94 1013.1
20260506214619 17 319 1.6 6.4 0.00 0.13 0.13 94 1012.9
20260506214606 17 318 1.6 6.4 0.00 0.13 0.13 94 1013.0
20260506214506 17 318 1.6 6.4 0.00 0.13 0.13 94 1013.0
20260506214304 17 321 1.6 6.4 0.00 0.13 0.13 94 1012.9
20260506214219 17 323 1.6 6.4 0.00 0.13 0.13 94 1012.9
20260506214204 17 326 1.6 6.4 0.00 0.13 0.13 94 1012.9
20260506214105 17 330 1.6 4.8 0.00 0.13 0.13 94 1012.9
20260506214020 17 331 1.6 4.8 0.00 0.13 0.13 94 1012.9
20260506213905 16 333 1.6 4.8 0.00 0.13 0.13 94 1012.9
20260506213704 17 337 1.6 4.8 0.00 0.13 0.13 94 1012.9
20260506213604 16 339 1.6 4.8 0.00 0.13 0.13 94 1012.8
20260506213519 16 339 0.0 4.8 0.00 0.13 0.13 94 1012.8
20260506213505 16 339 0.0 4.8 0.00 0.13 0.13 94 1012.9
20260506213404 16 339 0.0 4.8 0.00 0.13 0.13 94 1012.8
20260506213205 16 340 0.0 3.2 0.00 0.13 0.13 94 1012.8
20260506213105 16 341 0.0 1.6 0.00 0.13 0.13 94 1013.1
20260506213004 16 341 0.0 1.6 0.00 0.13 0.13 94 1012.8
20260506212905 16 341 0.0 3.2 0.00 0.13 0.13 94 1013.1
20260506212820 16 340 0.0 3.2 0.00 0.13 0.13 94 1013.1
20260506212805 16 338 0.0 3.2 0.00 0.13 0.13 94 1012.8
20260506212704 16 336 0.0 3.2 0.00 0.13 0.13 94 1013.0
20260506212506 16 325 1.6 3.2 0.00 0.13 0.13 94 1012.8
20260506212405 16 322 1.6 4.8 0.00 0.13 0.13 94 1012.8
20260506212307 16 320 1.6 6.4 0.00 0.13 0.13 94 1012.8
20260506212205 16 322 1.6 6.4 0.00 0.13 0.13 94 1013.0
20260506212105 16 321 1.6 6.4 0.00 0.13 0.13 94 1013.1
20260506212020 16 320 1.6 6.4 0.00 0.13 0.13 94 1013.1
20260506212005 16 320 1.6 6.4 0.00 0.13 0.13 94 1012.8
20260506211906 16 316 1.6 6.4 0.00 0.13 0.13 94 1012.8
20260506211718 16 314 1.6 6.4 0.00 0.13 0.13 94 1012.9
20260506211706 16 315 1.6 6.4 0.00 0.13 0.13 94 1012.8
20260506211605 16 316 1.6 6.4 0.00 0.13 0.13 94 1012.9
20260506211405 16 309 1.6 6.4 0.00 0.13 0.13 94 1012.8
20260506211321 16 310 1.6 6.4 0.00 0.13 0.13 94 1012.8
20260506211304 16 307 1.6 6.4 0.00 0.13 0.13 94 1012.8
20260506211204 16 296 1.6 4.8 0.00 0.13 0.13 94 1013.1
20260506211006 16 289 0.0 4.8 0.00 0.13 0.13 94 1012.9
20260506210906 16 277 0.0 4.8 0.00 0.13 0.13 93 1012.9
20260506210804 16 277 0.0 4.8 0.00 0.13 0.13 93 1012.9
20260506210706 16 277 0.0 4.8 0.00 0.13 0.13 93 1012.9
20260506210604 16 277 0.0 4.8 0.00 0.13 0.13 93 1012.7
20260506210506 16 278 0.0 4.8 0.00 0.13 0.13 93 1012.8
20260506210404 16 327 0.0 1.6 0.00 0.13 0.13 93 1012.7
20260506210306 16 0 0.0 0.0 0.00 0.13 0.13 93 1012.8
20260506210204 16 0 0.0 0.0 0.00 0.13 0.13 93 1012.7
20260506210105 16 327 0.0 3.2 0.00 0.13 0.13 93 1012.7
20260506210005 16 327 0.0 3.2 0.00 0.13 0.13 93 1012.8
20260506205906 16 326 0.0 3.2 0.00 0.13 0.13 93 1012.9
20260506205805 16 326 0.0 3.2 0.00 0.13 0.13 93 1012.8
20260506205705 16 326 0.0 3.2 0.00 0.13 0.13 93 1012.9
20260506205605 16 326 0.0 3.2 0.00 0.13 0.13 93 1012.9
20260506205505 16 326 0.0 3.2 0.00 0.13 0.13 93 1012.7
20260506205306 16 326 0.0 3.2 0.00 0.13 0.13 93 1012.8
20260506205205 16 326 0.0 3.2 0.00 0.13 0.13 93 1012.7
20260506205104 16 326 0.0 3.2 0.00 0.13 0.13 93 1012.8
20260506205005 16 326 0.0 1.6 0.00 0.13 0.13 93 1012.8
20260506204904 16 326 0.0 1.6 0.00 0.13 0.13 93 1012.6
20260506204806 16 326 0.0 1.6 0.00 0.13 0.13 93 1012.6
20260506204706 16 326 0.0 1.6 0.00 0.13 0.13 93 1012.5
20260506204504 16 0 0.0 0.0 0.00 0.13 0.13 93 1012.8
20260506204420 16 0 0.0 0.0 0.00 0.13 0.13 93 1012.8
20260506204406 16 0 0.0 0.0 0.00 0.13 0.13 93 1012.7
20260506204305 16 0 0.0 0.0 0.00 0.13 0.13 93 1012.6
20260506204105 16 0 0.0 0.0 0.00 0.13 0.13 93 1012.5
20260506204005 16 0 0.0 0.0 0.00 0.13 0.13 93 1012.8
20260506203906 16 0 0.0 0.0 0.00 0.13 0.13 93 1012.4
20260506203804 16 0 0.0 0.0 0.00 0.13 0.13 93 1012.5
20260506203705 16 0 0.0 0.0 0.00 0.13 0.13 93 1012.6
20260506203605 16 0 0.0 0.0 0.00 0.13 0.13 93 1012.5
20260506203506 16 0 0.0 0.0 0.00 0.13 0.13 93 1012.5
20260506203404 16 0 0.0 0.0 0.00 0.13 0.13 93 1012.3
20260506203305 16 0 0.0 0.0 0.00 0.13 0.13 93 1012.5
20260506203204 16 0 0.0 0.0 0.00 0.13 0.13 93 1012.4
20260506203106 16 0 0.0 0.0 0.00 0.13 0.13 93 1012.7
20260506203005 16 0 0.0 0.0 0.00 0.13 0.13 93 1012.7
20260506202904 16 0 0.0 0.0 0.00 0.13 0.13 93 1012.5
20260506202805 16 0 0.0 0.0 0.00 0.13 0.13 93 1012.4
20260506202704 16 0 0.0 0.0 0.00 0.13 0.13 93 1012.5
20260506202605 16 326 0.0 1.6 0.00 0.13 0.13 93 1012.4
20260506202505 16 326 0.0 1.6 0.00 0.13 0.13 93 1012.5
20260506202405 16 326 0.0 1.6 0.00 0.13 0.13 93 1012.4
20260506202320 16 326 0.0 1.6 0.00 0.13 0.13 93 1012.4
20260506202306 16 326 0.0 1.6 0.00 0.13 0.13 93 1012.6
20260506202221 16 326 0.0 1.6 0.00 0.13 0.13 93 1012.6
20260506202205 16 326 0.0 1.6 0.00 0.13 0.13 93 1012.4
20260506201905 16 326 0.0 1.6 0.00 0.13 0.13 93 1012.3
20260506201805 16 326 0.0 1.6 0.00 0.13 0.13 93 1012.6
20260506201705 16 326 0.0 1.6 0.00 0.13 0.13 93 1012.4
20260506201605 16 326 0.0 1.6 0.00 0.13 0.13 93 1012.4
20260506201505 16 0 0.0 0.0 0.00 0.13 0.13 93 1012.3
20260506201404 16 0 0.0 0.0 0.00 0.13 0.13 93 1012.2
20260506201304 16 0 0.0 0.0 0.00 0.13 0.13 93 1012.2
20260506201206 16 0 0.0 0.0 0.00 0.13 0.13 93 1012.3
20260506201106 16 327 0.0 1.6 0.00 0.13 0.13 93 1012.3
20260506201005 16 326 0.0 1.6 0.00 0.13 0.13 93 1012.3
20260506200919 16 326 0.0 1.6 0.00 0.13 0.13 93 1012.3
20260506200905 16 326 0.0 1.6 0.00 0.13 0.13 93 1012.4
20260506200819 16 326 0.0 1.6 0.00 0.13 0.13 93 1012.4
20260506200805 16 326 0.0 1.6 0.00 0.13 0.13 93 1012.3
20260506200519 16 326 0.0 1.6 0.00 0.13 0.13 93 1012.2
20260506200505 16 326 0.0 1.6 0.00 0.13 0.13 93 1012.0
20260506200405 16 326 0.0 1.6 0.00 0.13 0.13 93 1012.2
20260506200318 16 326 0.0 1.6 0.00 0.13 0.13 93 1012.2
20260506200205 16 326 0.0 1.6 0.00 0.13 0.13 93 1012.0
20260506200005 16 326 0.0 1.6 0.00 0.13 0.13 93 1012.0
20260506195904 16 326 0.0 1.6 0.00 0.13 0.13 93 1012.0
20260506195805 16 327 0.0 1.6 0.00 0.13 0.13 93 1012.0
20260506195706 16 327 0.0 1.6 0.00 0.13 0.13 93 1012.2
20260506195604 16 327 0.0 1.6 0.00 0.13 0.13 93 1012.3
20260506195505 16 327 0.0 1.6 0.00 0.13 0.13 93 1012.3
20260506195404 16 327 0.0 1.6 0.00 0.13 0.13 93 1012.4
20260506195306 16 327 0.0 1.6 0.00 0.13 0.13 93 1011.9
20260506195204 16 327 0.0 1.6 0.00 0.13 0.13 93 1012.0
20260506195105 16 327 0.0 1.6 0.00 0.13 0.13 93 1012.1
20260506195004 16 327 0.0 1.6 0.00 0.13 0.13 93 1012.2
20260506194905 16 327 0.0 1.6 0.00 0.13 0.13 93 1012.3
20260506194805 16 327 0.0 1.6 0.00 0.13 0.13 93 1012.0
20260506194719 16 327 1.6 1.6 0.00 0.13 0.13 93 1012.0
20260506194704 16 327 1.6 1.6 0.00 0.13 0.13 93 1012.2
20260506194606 16 327 1.6 1.6 0.00 0.13 0.13 93 1012.2
20260506194519 16 327 1.6 1.6 0.00 0.13 0.13 93 1012.2
20260506194405 16 327 1.6 1.6 0.00 0.13 0.13 93 1012.1
20260506194220 16 328 1.6 1.6 0.00 0.13 0.13 93 1012.1
20260506194205 16 328 1.6 1.6 0.00 0.13 0.13 93 1012.2
20260506194104 16 328 1.6 1.6 0.00 0.13 0.13 93 1012.2
20260506193905 16 327 1.6 1.6 0.00 0.13 0.13 93 1012.1
20260506193805 16 327 1.6 1.6 0.00 0.13 0.13 93 1012.2
20260506193705 16 327 1.6 1.6 0.00 0.13 0.13 93 1012.3
20260506193618 16 327 1.6 1.6 0.00 0.13 0.13 93 1012.3
20260506193606 16 327 0.0 1.6 0.00 0.13 0.13 93 1012.0
20260506193504 16 327 0.0 1.6 0.00 0.13 0.13 93 1012.3
20260506193306 16 327 0.0 1.6 0.00 0.13 0.13 93 1012.3
20260506193205 16 327 0.0 1.6 0.00 0.13 0.13 93 1012.2
20260506193105 16 327 0.0 1.6 0.00 0.13 0.13 93 1012.3
20260506193005 16 327 0.0 1.6 0.00 0.13 0.13 93 1012.5
20260506192905 16 327 0.0 1.6 0.00 0.13 0.13 93 1012.4
20260506192805 16 0 0.0 0.0 0.00 0.13 0.13 93 1012.2
20260506192705 16 0 0.0 0.0 0.00 0.13 0.13 93 1012.5
20260506192606 16 0 0.0 0.0 0.00 0.13 0.13 93 1012.3
20260506192505 16 0 0.0 0.0 0.00 0.13 0.13 93 1012.4
20260506192405 16 0 0.0 0.0 0.00 0.13 0.13 93 1012.4
20260506192306 16 0 0.0 0.0 0.00 0.13 0.13 93 1012.4
20260506192104 16 0 0.0 0.0 0.00 0.13 0.13 93 1012.4